Time,TemperatureF,DewpointF,PressureIn,WindDirection,WindDirectionDegrees,WindSpeedMPH,WindSpeedGustMPH,Humidity,HourlyPrecipIn,Conditions,Clouds,dailyrainin,SolarRadiationWatts/m^2,SoftwareType,DateUTC
2013-10-09 00:00:00,61.7,46.3,29.79,SSW,206,6.0,10.0,57,0.00,,,0.00,0,WeatherCatV1.21B27,2013-10-09 05:00:00,
2013-10-09 00:02:00,61.7,46.8,29.79,South,183,6.0,13.0,58,0.00,,,0.00,0,WeatherCatV1.21B27,2013-10-09 05:02:00,
2013-10-09 00:03:00,61.7,46.8,29.79,SSE,154,3.0,13.0,58,0.00,,,0.00,0,WeatherCatV1.21B27,2013-10-09 05:03:00,
2013-10-09 00:04:00,61.6,46.7,29.79,SSE,147,6.0,6.0,58,0.00,,,0.00,0,WeatherCatV1.21B27,2013-10-09 05:04:00,
2013-10-09 00:05:00,61.6,46.7,29.79,South,183,3.0,13.0,58,0.00,,,0.00,0,WeatherCatV1.21B27,2013-10-09 05:05:00,
2013-10-09 00:07:00,61.6,46.7,29.79,SE,137,7.0,16.0,58,0.00,,,0.00,0,WeatherCatV1.21B27,2013-10-09 05:07:00,
2013-10-09 00:08:00,61.6,46.7,29.79,SSW,209,8.0,16.0,58,0.00,,,0.00,0,WeatherCatV1.21B27,2013-10-09 05:08:00,
2013-10-09 00:09:00,61.6,46.7,29.79,SE,132,3.0,10.0,58,0.00,,,0.00,0,WeatherCatV1.21B27,2013-10-09 05:09:00,
2013-10-09 00:11:00,61.5,46.6,29.79,South,172,3.0,11.0,58,0.00,,,0.00,0,WeatherCatV1.21B27,2013-10-09 05:11:00,
2013-10-09 00:12:00,61.5,46.6,29.79,SW,217,9.0,17.0,58,0.00,,,0.00,0,WeatherCatV1.21B27,2013-10-09 05:12:00,
2013-10-09 00:13:00,61.5,46.6,29.79,SSE,163,7.0,17.0,58,0.00,,,0.00,0,WeatherCatV1.21B27,2013-10-09 05:13:00,
2013-10-09 00:14:00,61.5,46.6,29.80,SSE,167,2.0,17.0,58,0.00,,,0.00,0,WeatherCatV1.21B27,2013-10-09 05:14:00,
2013-10-09 00:16:00,61.5,46.6,29.80,SSE,168,3.0,15.0,58,0.00,,,0.00,0,WeatherCatV1.21B27,2013-10-09 05:16:00,
2013-10-09 00:18:00,61.4,46.5,29.80,SSE,155,5.0,13.0,58,0.00,,,0.00,0,WeatherCatV1.21B27,2013-10-09 05:18:00,
2013-10-09 00:19:00,61.4,46.5,29.80,SSW,195,3.0,13.0,58,0.00,,,0.00,0,WeatherCatV1.21B27,2013-10-09 05:19:00,
2013-10-09 00:21:00,61.4,46.5,29.80,SW,216,14.0,16.0,58,0.00,,,0.00,0,WeatherCatV1.21B27,2013-10-09 05:21:00,
2013-10-09 00:23:00,61.4,46.5,29.80,SSE,148,4.0,14.0,58,0.00,,,0.00,0,WeatherCatV1.21B27,2013-10-09 05:23:00,
2013-10-09 00:24:00,61.4,46.5,29.80,SW,216,5.0,19.0,58,0.00,,,0.00,0,WeatherCatV1.21B27,2013-10-09 05:24:00,
2013-10-09 00:25:00,61.3,46.8,29.80,South,175,4.0,19.0,59,0.00,,,0.00,0,WeatherCatV1.21B27,2013-10-09 05:25:00,
2013-10-09 00:26:00,61.3,46.8,29.80,South,175,2.0,7.0,59,0.00,,,0.00,0,WeatherCatV1.21B27,2013-10-09 05:26:00,
2013-10-09 00:28:00,61.2,46.8,29.79,South,187,4.0,14.0,59,0.00,,,0.00,0,WeatherCatV1.21B27,2013-10-09 05:28:00,
2013-10-09 00:29:00,61.1,46.7,29.79,SE,128,3.0,7.0,59,0.00,,,0.00,0,WeatherCatV1.21B27,2013-10-09 05:29:00,
2013-10-09 00:30:00,61.2,46.8,29.80,SSW,198,7.0,13.0,59,0.00,,,0.00,0,WeatherCatV1.21B27,2013-10-09 05:30:00,
2013-10-09 00:31:00,61.1,46.7,29.80,ESE,119,5.0,13.0,59,0.00,,,0.00,0,WeatherCatV1.21B27,2013-10-09 05:31:00,
2013-10-09 00:34:00,61.1,46.7,29.79,SSE,160,3.0,12.0,59,0.00,,,0.00,0,WeatherCatV1.21B27,2013-10-09 05:34:00,
2013-10-09 00:35:00,61.0,46.6,29.79,SSW,202,10.0,11.0,59,0.00,,,0.00,0,WeatherCatV1.21B27,2013-10-09 05:35:00,
2013-10-09 00:36:00,61.0,46.6,29.79,ESE,121,2.0,13.0,59,0.00,,,0.00,0,WeatherCatV1.21B27,2013-10-09 05:36:00,
2013-10-09 00:39:00,60.9,46.9,29.80,SSW,192,4.0,8.0,60,0.00,,,0.00,0,WeatherCatV1.21B27,2013-10-09 05:39:00,
2013-10-09 00:40:00,60.9,46.5,29.79,SE,129,11.0,11.0,59,0.00,,,0.00,0,WeatherCatV1.21B27,2013-10-09 05:40:00,
2013-10-09 00:41:00,60.8,46.4,29.79,South,184,4.0,11.0,59,0.00,,,0.00,0,WeatherCatV1.21B27,2013-10-09 05:41:00,
2013-10-09 00:42:00,60.8,46.4,29.79,SE,141,12.0,12.0,59,0.00,,,0.00,0,WeatherCatV1.21B27,2013-10-09 05:42:00,
2013-10-09 00:44:00,60.7,46.7,29.79,SSE,165,8.0,12.0,60,0.00,,,0.00,0,WeatherCatV1.21B27,2013-10-09 05:44:00,
2013-10-09 00:45:00,60.7,46.7,29.79,South,172,7.0,14.0,60,0.00,,,0.00,0,WeatherCatV1.21B27,2013-10-09 05:45:00,
2013-10-09 00:46:00,60.7,46.7,29.79,South,190,7.0,14.0,60,0.00,,,0.00,0,WeatherCatV1.21B27,2013-10-09 05:46:00,
2013-10-09 00:47:00,60.7,46.7,29.79,SSW,199,7.0,16.0,60,0.00,,,0.00,0,WeatherCatV1.21B27,2013-10-09 05:47:00,
2013-10-09 00:49:00,60.7,46.7,29.80,SSE,147,8.0,9.0,60,0.00,,,0.00,0,WeatherCatV1.21B27,2013-10-09 05:49:00,
2013-10-09 00:50:00,60.6,46.6,29.79,SSE,164,2.0,9.0,60,0.00,,,0.00,0,WeatherCatV1.21B27,2013-10-09 05:50:00,
2013-10-09 00:51:00,60.6,46.6,29.80,SSE,153,8.0,9.0,60,0.00,,,0.00,0,WeatherCatV1.21B27,2013-10-09 05:51:00,
2013-10-09 00:52:00,60.5,46.5,29.79,SE,146,1.0,11.0,60,0.00,,,0.00,0,WeatherCatV1.21B27,2013-10-09 05:52:00,
2013-10-09 00:53:00,60.5,46.5,29.80,South,178,10.0,17.0,60,0.00,,,0.00,0,WeatherCatV1.21B27,2013-10-09 05:53:00,
2013-10-09 00:54:00,60.5,46.5,29.79,SE,141,6.0,17.0,60,0.00,,,0.00,0,WeatherCatV1.21B27,2013-10-09 05:54:00,
2013-10-09 00:56:00,60.5,46.5,29.79,SW,222,5.0,20.0,60,0.00,,,0.00,0,WeatherCatV1.21B27,2013-10-09 05:56:00,
2013-10-09 00:57:00,60.4,46.5,29.79,SSW,195,5.0,17.0,60,0.00,,,0.00,0,WeatherCatV1.21B27,2013-10-09 05:57:00,
2013-10-09 00:58:00,60.4,46.5,29.79,SSW,202,1.0,12.0,60,0.00,,,0.00,0,WeatherCatV1.21B27,2013-10-09 05:58:00,
2013-10-09 00:59:00,60.4,46.9,29.79,SSW,192,4.0,12.0,61,0.00,,,0.00,0,WeatherCatV1.21B27,2013-10-09 05:59:00,
2013-10-09 01:01:00,60.4,46.9,29.80,South,182,3.0,10.0,61,0.00,,,0.00,0,WeatherCatV1.21B27,2013-10-09 06:01:00,
2013-10-09 01:02:00,60.3,46.8,29.79,SE,136,4.0,8.0,61,0.00,,,0.00,0,WeatherCatV1.21B27,2013-10-09 06:02:00,
2013-10-09 01:03:00,60.2,46.7,29.79,SSW,195,6.0,8.0,61,0.00,,,0.00,0,WeatherCatV1.21B27,2013-10-09 06:03:00,
2013-10-09 01:04:00,60.2,46.7,29.79,SSW,202,11.0,11.0,61,0.00,,,0.00,0,WeatherCatV1.21B27,2013-10-09 06:04:00,
2013-10-09 01:06:00,60.1,46.6,29.79,SSW,200,14.0,14.0,61,0.00,,,0.00,0,WeatherCatV1.21B27,2013-10-09 06:06:00,
2013-10-09 01:08:00,60.1,46.6,29.79,SSE,161,3.0,16.0,61,0.00,,,0.00,0,WeatherCatV1.21B27,2013-10-09 06:08:00,
2013-10-09 01:09:00,60.1,46.6,29.79,SSE,149,5.0,11.0,61,0.00,,,0.00,0,WeatherCatV1.21B27,2013-10-09 06:09:00,
2013-10-09 01:11:00,60.1,46.6,29.80,SE,126,5.0,14.0,61,0.00,,,0.00,0,WeatherCatV1.21B27,2013-10-09 06:11:00,
2013-10-09 01:12:00,60.1,46.6,29.80,SSE,160,5.0,14.0,61,0.00,,,0.00,0,WeatherCatV1.21B27,2013-10-09 06:12:00,
2013-10-09 01:13:00,60.0,46.5,29.80,SSW,194,6.0,13.0,61,0.00,,,0.00,0,WeatherCatV1.21B27,2013-10-09 06:13:00,
2013-10-09 01:15:00,60.0,46.9,29.80,South,180,3.0,10.0,62,0.00,,,0.00,0,WeatherCatV1.21B27,2013-10-09 06:15:00,
2013-10-09 01:16:00,59.9,46.8,29.80,SSW,198,3.0,9.0,62,0.00,,,0.00,0,WeatherCatV1.21B27,2013-10-09 06:16:00,
2013-10-09 01:17:00,59.9,46.8,29.80,SSE,157,4.0,10.0,62,0.00,,,0.00,0,WeatherCatV1.21B27,2013-10-09 06:17:00,
2013-10-09 01:19:00,59.9,46.8,29.80,South,190,6.0,11.0,62,0.00,,,0.00,0,WeatherCatV1.21B27,2013-10-09 06:19:00,
2013-10-09 01:20:00,59.8,46.8,29.80,South,182,7.0,12.0,62,0.00,,,0.00,0,WeatherCatV1.21B27,2013-10-09 06:20:00,
2013-10-09 01:22:00,59.8,46.8,29.80,SSW,194,6.0,8.0,62,0.00,,,0.00,0,WeatherCatV1.21B27,2013-10-09 06:22:00,
2013-10-09 01:24:00,59.7,46.7,29.80,South,173,3.0,10.0,62,0.00,,,0.00,0,WeatherCatV1.21B27,2013-10-09 06:24:00,
2013-10-09 01:25:00,59.7,46.7,29.80,SE,133,5.0,12.0,62,0.00,,,0.00,0,WeatherCatV1.21B27,2013-10-09 06:25:00,
2013-10-09 01:27:00,59.6,47.0,29.80,SE,141,8.0,10.0,63,0.00,,,0.00,0,WeatherCatV1.21B27,2013-10-09 06:27:00,
2013-10-09 01:29:00,59.6,47.0,29.80,SSW,213,16.0,16.0,63,0.00,,,0.00,0,WeatherCatV1.21B27,2013-10-09 06:29:00,
2013-10-09 01:30:00,59.6,47.0,29.80,SSW,200,10.0,16.0,63,0.00,,,0.00,0,WeatherCatV1.21B27,2013-10-09 06:30:00,
2013-10-09 01:32:00,59.6,47.0,29.80,SSE,153,5.0,10.0,63,0.00,,,0.00,0,WeatherCatV1.21B27,2013-10-09 06:32:00,
2013-10-09 01:34:00,59.6,47.0,29.80,SE,134,4.0,10.0,63,0.00,,,0.00,0,WeatherCatV1.21B27,2013-10-09 06:34:00,
2013-10-09 01:35:00,59.5,46.9,29.80,ESE,122,2.0,9.0,63,0.00,,,0.00,0,WeatherCatV1.21B27,2013-10-09 06:35:00,
2013-10-09 01:36:00,59.5,46.9,29.80,SSW,200,5.0,8.0,63,0.00,,,0.00,0,WeatherCatV1.21B27,2013-10-09 06:36:00,
2013-10-09 01:37:00,59.5,46.9,29.80,SE,144,5.0,12.0,63,0.00,,,0.00,0,WeatherCatV1.21B27,2013-10-09 06:37:00,
2013-10-09 01:38:00,59.5,46.9,29.80,SSW,196,3.0,12.0,63,0.00,,,0.00,0,WeatherCatV1.21B27,2013-10-09 06:38:00,
2013-10-09 01:39:00,59.4,46.8,29.80,SE,126,3.0,11.0,63,0.00,,,0.00,0,WeatherCatV1.21B27,2013-10-09 06:39:00,
2013-10-09 01:40:00,59.4,46.8,29.80,SSE,166,6.0,11.0,63,0.00,,,0.00,0,WeatherCatV1.21B27,2013-10-09 06:40:00,
2013-10-09 01:41:00,59.3,46.7,29.80,SSW,213,5.0,11.0,63,0.00,,,0.00,0,WeatherCatV1.21B27,2013-10-09 06:41:00,
2013-10-09 01:42:00,59.3,46.7,29.80,SSE,148,5.0,12.0,63,0.00,,,0.00,0,WeatherCatV1.21B27,2013-10-09 06:42:00,
2013-10-09 01:43:00,59.3,46.7,29.80,SSE,150,5.0,12.0,63,0.00,,,0.00,0,WeatherCatV1.21B27,2013-10-09 06:43:00,
2013-10-09 01:45:00,59.2,46.6,29.80,SSE,161,2.0,11.0,63,0.00,,,0.00,0,WeatherCatV1.21B27,2013-10-09 06:45:00,
2013-10-09 01:46:00,59.1,46.9,29.80,South,170,4.0,12.0,64,0.00,,,0.00,0,WeatherCatV1.21B27,2013-10-09 06:46:00,
2013-10-09 01:48:00,59.0,46.8,29.80,SSE,164,1.0,8.0,64,0.00,,,0.00,0,WeatherCatV1.21B27,2013-10-09 06:48:00,
2013-10-09 01:49:00,59.0,46.8,29.80,South,180,5.0,10.0,64,0.00,,,0.00,0,WeatherCatV1.21B27,2013-10-09 06:49:00,
2013-10-09 01:50:00,59.0,46.8,29.80,South,180,3.0,10.0,64,0.00,,,0.00,0,WeatherCatV1.21B27,2013-10-09 06:50:00,
2013-10-09 01:51:00,59.0,46.8,29.80,South,173,4.0,5.0,64,0.00,,,0.00,0,WeatherCatV1.21B27,2013-10-09 06:51:00,
2013-10-09 01:53:00,59.0,46.8,29.80,SSE,155,4.0,13.0,64,0.00,,,0.00,0,WeatherCatV1.21B27,2013-10-09 06:53:00,
2013-10-09 01:54:00,59.0,46.8,29.80,South,169,6.0,16.0,64,0.00,,,0.00,0,WeatherCatV1.21B27,2013-10-09 06:54:00,
2013-10-09 01:55:00,59.0,46.8,29.80,SE,144,6.0,16.0,64,0.00,,,0.00,0,WeatherCatV1.21B27,2013-10-09 06:55:00,
2013-10-09 01:56:00,59.0,46.8,29.80,ESE,121,4.0,16.0,64,0.00,,,0.00,0,WeatherCatV1.21B27,2013-10-09 06:56:00,
2013-10-09 01:58:00,59.0,47.2,29.80,South,188,5.0,13.0,65,0.00,,,0.00,0,WeatherCatV1.21B27,2013-10-09 06:58:00,
2013-10-09 01:59:00,59.0,47.2,29.80,SE,135,7.0,13.0,65,0.00,,,0.00,0,WeatherCatV1.21B27,2013-10-09 06:59:00,
2013-10-09 02:01:00,59.0,47.2,29.80,SSE,149,3.0,12.0,65,0.00,,,0.00,0,WeatherCatV1.21B27,2013-10-09 07:01:00,
2013-10-09 02:03:00,58.9,47.2,29.80,SE,138,5.0,9.0,65,0.00,,,0.00,0,WeatherCatV1.21B27,2013-10-09 07:03:00,
2013-10-09 02:04:00,58.9,47.2,29.80,South,188,12.0,12.0,65,0.00,,,0.00,0,WeatherCatV1.21B27,2013-10-09 07:04:00,
2013-10-09 02:05:00,58.9,47.2,29.80,SE,144,3.0,12.0,65,0.00,,,0.00,0,WeatherCatV1.21B27,2013-10-09 07:05:00,
2013-10-09 02:06:00,58.9,47.2,29.80,SE,139,8.0,12.0,65,0.00,,,0.00,0,WeatherCatV1.21B27,2013-10-09 07:06:00,
2013-10-09 02:08:00,58.8,47.5,29.80,SE,138,2.0,8.0,66,0.00,,,0.00,0,WeatherCatV1.21B27,2013-10-09 07:08:00,
2013-10-09 02:09:00,58.7,47.4,29.80,SSE,157,7.0,10.0,66,0.00,,,0.00,0,WeatherCatV1.21B27,2013-10-09 07:09:00,
2013-10-09 02:10:00,58.7,47.4,29.80,South,172,4.0,12.0,66,0.00,,,0.00,0,WeatherCatV1.21B27,2013-10-09 07:10:00,
2013-10-09 02:11:00,58.7,47.4,29.80,SSE,149,9.0,13.0,66,0.00,,,0.00,0,WeatherCatV1.21B27,2013-10-09 07:11:00,
2013-10-09 02:12:00,58.7,47.4,29.80,South,172,7.0,13.0,66,0.00,,,0.00,0,WeatherCatV1.21B27,2013-10-09 07:12:00,
2013-10-09 02:13:00,58.7,47.4,29.80,SSE,165,4.0,8.0,66,0.00,,,0.00,0,WeatherCatV1.21B27,2013-10-09 07:13:00,
2013-10-09 02:14:00,58.6,47.3,29.80,SSW,211,3.0,9.0,66,0.00,,,0.00,0,WeatherCatV1.21B27,2013-10-09 07:14:00,
2013-10-09 02:15:00,58.6,47.3,29.80,South,180,5.0,10.0,66,0.00,,,0.00,0,WeatherCatV1.21B27,2013-10-09 07:15:00,
2013-10-09 02:16:00,58.6,47.3,29.80,South,184,3.0,10.0,66,0.00,,,0.00,0,WeatherCatV1.21B27,2013-10-09 07:16:00,
2013-10-09 02:17:00,58.6,47.3,29.80,South,187,4.0,6.0,66,0.00,,,0.00,0,WeatherCatV1.21B27,2013-10-09 07:17:00,
2013-10-09 02:18:00,58.5,47.2,29.80,SE,142,5.0,7.0,66,0.00,,,0.00,0,WeatherCatV1.21B27,2013-10-09 07:18:00,
2013-10-09 02:19:00,58.4,47.1,29.80,SE,143,0.0,7.0,66,0.00,,,0.00,0,WeatherCatV1.21B27,2013-10-09 07:19:00,
2013-10-09 02:20:00,58.4,47.1,29.80,SE,142,6.0,11.0,66,0.00,,,0.00,0,WeatherCatV1.21B27,2013-10-09 07:20:00,
2013-10-09 02:21:00,58.4,47.1,29.80,SSE,161,5.0,12.0,66,0.00,,,0.00,0,WeatherCatV1.21B27,2013-10-09 07:21:00,
2013-10-09 02:22:00,58.4,47.1,29.80,SE,130,7.0,12.0,66,0.00,,,0.00,0,WeatherCatV1.21B27,2013-10-09 07:22:00,
2013-10-09 02:24:00,58.3,47.4,29.80,SSE,159,2.0,8.0,67,0.00,,,0.00,0,WeatherCatV1.21B27,2013-10-09 07:24:00,
2013-10-09 02:26:00,58.3,47.4,29.80,South,173,4.0,11.0,67,0.00,,,0.00,0,WeatherCatV1.21B27,2013-10-09 07:26:00,
2013-10-09 02:27:00,58.3,47.4,29.80,SE,144,0.0,11.0,67,0.00,,,0.00,0,WeatherCatV1.21B27,2013-10-09 07:27:00,
2013-10-09 02:29:00,58.2,47.3,29.80,South,180,6.0,11.0,67,0.00,,,0.00,0,WeatherCatV1.21B27,2013-10-09 07:29:00,
2013-10-09 02:31:00,58.2,47.3,29.80,South,188,7.0,9.0,67,0.00,,,0.00,0,WeatherCatV1.21B27,2013-10-09 07:31:00,
2013-10-09 02:32:00,58.1,47.2,29.80,SE,134,4.0,10.0,67,0.00,,,0.00,0,WeatherCatV1.21B27,2013-10-09 07:32:00,
2013-10-09 02:34:00,58.1,47.2,29.80,SW,220,9.0,11.0,67,0.00,,,0.00,0,WeatherCatV1.21B27,2013-10-09 07:34:00,
2013-10-09 02:35:00,58.1,47.2,29.80,ESE,118,11.0,11.0,67,0.00,,,0.00,0,WeatherCatV1.21B27,2013-10-09 07:35:00,
2013-10-09 02:36:00,58.1,47.2,29.80,SSE,157,4.0,8.0,67,0.00,,,0.00,0,WeatherCatV1.21B27,2013-10-09 07:36:00,
2013-10-09 02:37:00,58.1,47.6,29.80,SSE,167,4.0,6.0,68,0.00,,,0.00,0,WeatherCatV1.21B27,2013-10-09 07:37:00,
2013-10-09 02:38:00,58.1,47.6,29.80,SSW,206,3.0,6.0,68,0.00,,,0.00,0,WeatherCatV1.21B27,2013-10-09 07:38:00,
2013-10-09 02:40:00,58.0,47.5,29.80,SSW,207,3.0,8.0,68,0.00,,,0.00,0,WeatherCatV1.21B27,2013-10-09 07:40:00,
2013-10-09 02:41:00,58.0,47.5,29.80,SSE,152,6.0,10.0,68,0.00,,,0.00,0,WeatherCatV1.21B27,2013-10-09 07:41:00,
2013-10-09 02:43:00,58.0,47.5,29.80,SSE,163,2.0,9.0,68,0.00,,,0.00,0,WeatherCatV1.21B27,2013-10-09 07:43:00,
2013-10-09 02:45:00,58.0,47.5,29.79,SSE,147,2.0,6.0,68,0.00,,,0.00,0,WeatherCatV1.21B27,2013-10-09 07:45:00,
2013-10-09 02:47:00,57.9,47.4,29.80,SSE,150,5.0,9.0,68,0.00,,,0.00,0,WeatherCatV1.21B27,2013-10-09 07:47:00,
2013-10-09 02:48:00,57.8,47.3,29.79,SSE,156,7.0,7.0,68,0.00,,,0.00,0,WeatherCatV1.21B27,2013-10-09 07:48:00,
2013-10-09 02:50:00,57.8,47.3,29.80,South,182,8.0,14.0,68,0.00,,,0.00,0,WeatherCatV1.21B27,2013-10-09 07:50:00,
2013-10-09 02:51:00,57.8,47.3,29.80,South,184,2.0,14.0,68,0.00,,,0.00,0,WeatherCatV1.21B27,2013-10-09 07:51:00,
2013-10-09 02:52:00,57.8,47.3,29.80,SE,134,5.0,10.0,68,0.00,,,0.00,0,WeatherCatV1.21B27,2013-10-09 07:52:00,
2013-10-09 02:53:00,57.8,47.7,29.80,South,190,10.0,13.0,69,0.00,,,0.00,0,WeatherCatV1.21B27,2013-10-09 07:53:00,
2013-10-09 02:55:00,57.8,47.7,29.80,South,178,8.0,9.0,69,0.00,,,0.00,0,WeatherCatV1.21B27,2013-10-09 07:55:00,
2013-10-09 02:56:00,57.7,47.6,29.80,ESE,119,3.0,13.0,69,0.00,,,0.00,0,WeatherCatV1.21B27,2013-10-09 07:56:00,
2013-10-09 02:57:00,57.8,47.7,29.80,ESE,123,4.0,13.0,69,0.00,,,0.00,0,WeatherCatV1.21B27,2013-10-09 07:57:00,
2013-10-09 02:58:00,57.8,47.7,29.80,SSE,161,3.0,10.0,69,0.00,,,0.00,0,WeatherCatV1.21B27,2013-10-09 07:58:00,
2013-10-09 02:59:00,57.7,47.6,29.79,SE,145,4.0,8.0,69,0.00,,,0.00,0,WeatherCatV1.21B27,2013-10-09 07:59:00,
2013-10-09 03:00:00,57.7,47.6,29.80,SSE,165,4.0,10.0,69,0.00,,,0.00,0,WeatherCatV1.21B27,2013-10-09 08:00:00,
2013-10-09 03:01:00,57.7,47.6,29.79,SSE,160,6.0,10.0,69,0.00,,,0.00,0,WeatherCatV1.21B27,2013-10-09 08:01:00,
2013-10-09 03:02:00,57.7,47.6,29.79,South,180,5.0,10.0,69,0.00,,,0.00,0,WeatherCatV1.21B27,2013-10-09 08:02:00,
2013-10-09 03:03:00,57.7,47.6,29.79,SSE,167,6.0,10.0,69,0.00,,,0.00,0,WeatherCatV1.21B27,2013-10-09 08:03:00,
2013-10-09 03:04:00,57.7,47.6,29.79,ESE,121,4.0,13.0,69,0.00,,,0.00,0,WeatherCatV1.21B27,2013-10-09 08:04:00,
2013-10-09 03:05:00,57.7,47.6,29.80,South,182,4.0,7.0,69,0.00,,,0.00,0,WeatherCatV1.21B27,2013-10-09 08:05:00,
2013-10-09 03:06:00,57.7,47.6,29.80,SE,146,11.0,15.0,69,0.00,,,0.00,0,WeatherCatV1.21B27,2013-10-09 08:06:00,
2013-10-09 03:07:00,57.7,47.6,29.80,SE,138,6.0,15.0,69,0.00,,,0.00,0,WeatherCatV1.21B27,2013-10-09 08:07:00,
2013-10-09 03:08:00,57.7,47.6,29.79,SSE,155,5.0,12.0,69,0.00,,,0.00,0,WeatherCatV1.21B27,2013-10-09 08:08:00,
2013-10-09 03:09:00,57.7,47.6,29.80,SSE,150,0.0,7.0,69,0.00,,,0.00,0,WeatherCatV1.21B27,2013-10-09 08:09:00,
2013-10-09 03:10:00,57.6,47.5,29.79,SSW,203,3.0,14.0,69,0.00,,,0.00,0,WeatherCatV1.21B27,2013-10-09 08:10:00,
2013-10-09 03:11:00,57.6,47.5,29.79,SSW,202,2.0,14.0,69,0.00,,,0.00,0,WeatherCatV1.21B27,2013-10-09 08:11:00,
2013-10-09 03:12:00,57.5,47.8,29.79,SSE,157,10.0,13.0,70,0.00,,,0.00,0,WeatherCatV1.21B27,2013-10-09 08:12:00,
2013-10-09 03:13:00,57.5,47.8,29.79,SSW,199,5.0,13.0,70,0.00,,,0.00,0,WeatherCatV1.21B27,2013-10-09 08:13:00,
2013-10-09 03:14:00,57.5,47.8,29.79,South,184,5.0,13.0,70,0.00,,,0.00,0,WeatherCatV1.21B27,2013-10-09 08:14:00,
2013-10-09 03:15:00,57.5,47.8,29.79,SSW,195,3.0,12.0,70,0.00,,,0.00,0,WeatherCatV1.21B27,2013-10-09 08:15:00,
2013-10-09 03:17:00,57.5,47.8,29.79,South,186,5.0,10.0,70,0.00,,,0.00,0,WeatherCatV1.21B27,2013-10-09 08:17:00,
2013-10-09 03:18:00,57.5,47.8,29.79,SE,130,4.0,12.0,70,0.00,,,0.00,0,WeatherCatV1.21B27,2013-10-09 08:18:00,
2013-10-09 03:20:00,57.5,47.8,29.79,SSE,153,1.0,10.0,70,0.00,,,0.00,0,WeatherCatV1.21B27,2013-10-09 08:20:00,
2013-10-09 03:22:00,57.4,47.7,29.79,SSE,164,7.0,7.0,70,0.00,,,0.00,0,WeatherCatV1.21B27,2013-10-09 08:22:00,
2013-10-09 03:23:00,57.3,47.6,29.79,SE,136,6.0,9.0,70,0.00,,,0.00,0,WeatherCatV1.21B27,2013-10-09 08:23:00,
2013-10-09 03:25:00,57.3,47.6,29.79,SE,141,8.0,11.0,70,0.00,,,0.00,0,WeatherCatV1.21B27,2013-10-09 08:25:00,
2013-10-09 03:27:00,57.3,47.6,29.79,SE,142,1.0,7.0,70,0.00,,,0.00,0,WeatherCatV1.21B27,2013-10-09 08:27:00,
2013-10-09 03:28:00,57.3,47.6,29.79,SE,130,3.0,10.0,70,0.00,,,0.00,0,WeatherCatV1.21B27,2013-10-09 08:28:00,
2013-10-09 03:30:00,57.3,48.0,29.79,ESE,122,2.0,13.0,71,0.00,,,0.00,0,WeatherCatV1.21B27,2013-10-09 08:30:00,
2013-10-09 03:31:00,57.3,48.0,29.79,SSE,157,6.0,13.0,71,0.00,,,0.00,0,WeatherCatV1.21B27,2013-10-09 08:31:00,
2013-10-09 03:32:00,57.3,48.0,29.79,South,182,4.0,6.0,71,0.00,,,0.00,0,WeatherCatV1.21B27,2013-10-09 08:32:00,
2013-10-09 03:33:00,57.3,48.0,29.79,South,169,3.0,12.0,71,0.00,,,0.00,0,WeatherCatV1.21B27,2013-10-09 08:33:00,
2013-10-09 03:34:00,57.3,48.0,29.79,SE,136,2.0,12.0,71,0.00,,,0.00,0,WeatherCatV1.21B27,2013-10-09 08:34:00,
2013-10-09 03:35:00,57.3,48.0,29.79,SSE,168,6.0,11.0,71,0.00,,,0.00,0,WeatherCatV1.21B27,2013-10-09 08:35:00,
2013-10-09 03:36:00,57.3,48.0,29.79,SE,126,3.0,11.0,71,0.00,,,0.00,0,WeatherCatV1.21B27,2013-10-09 08:36:00,
2013-10-09 03:37:00,57.3,48.0,29.79,SSE,167,4.0,12.0,71,0.00,,,0.00,0,WeatherCatV1.21B27,2013-10-09 08:37:00,
2013-10-09 03:38:00,57.3,48.0,29.79,SE,145,5.0,12.0,71,0.00,,,0.00,0,WeatherCatV1.21B27,2013-10-09 08:38:00,
2013-10-09 03:39:00,57.3,48.0,29.79,SSW,196,2.0,10.0,71,0.00,,,0.00,0,WeatherCatV1.21B27,2013-10-09 08:39:00,
2013-10-09 03:40:00,57.2,47.9,29.79,SSE,157,4.0,9.0,71,0.00,,,0.00,0,WeatherCatV1.21B27,2013-10-09 08:40:00,
2013-10-09 03:41:00,57.2,47.9,29.79,SSW,197,3.0,6.0,71,0.00,,,0.00,0,WeatherCatV1.21B27,2013-10-09 08:41:00,
2013-10-09 03:43:00,57.1,47.8,29.79,SSW,204,6.0,12.0,71,0.00,,,0.00,0,WeatherCatV1.21B27,2013-10-09 08:43:00,
2013-10-09 03:44:00,57.1,47.8,29.79,South,183,1.0,12.0,71,0.00,,,0.00,0,WeatherCatV1.21B27,2013-10-09 08:44:00,
2013-10-09 03:45:00,57.0,47.7,29.79,SSE,154,4.0,13.0,71,0.00,,,0.00,0,WeatherCatV1.21B27,2013-10-09 08:45:00,
2013-10-09 03:46:00,57.0,47.7,29.79,South,183,6.0,13.0,71,0.00,,,0.00,0,WeatherCatV1.21B27,2013-10-09 08:46:00,
2013-10-09 03:48:00,57.0,48.1,29.79,South,169,5.0,14.0,72,0.00,,,0.00,0,WeatherCatV1.21B27,2013-10-09 08:48:00,
2013-10-09 03:49:00,56.9,48.0,29.78,SSE,161,3.0,13.0,72,0.00,,,0.00,0,WeatherCatV1.21B27,2013-10-09 08:49:00,
2013-10-09 03:51:00,56.9,48.0,29.79,SSE,152,5.0,13.0,72,0.00,,,0.00,0,WeatherCatV1.21B27,2013-10-09 08:51:00,
2013-10-09 03:53:00,56.9,48.0,29.78,SSW,192,10.0,11.0,72,0.00,,,0.00,0,WeatherCatV1.21B27,2013-10-09 08:53:00,
2013-10-09 03:55:00,56.9,48.0,29.78,South,180,5.0,13.0,72,0.00,,,0.00,0,WeatherCatV1.21B27,2013-10-09 08:55:00,
2013-10-09 03:56:00,56.8,47.9,29.78,South,173,6.0,18.0,72,0.00,,,0.00,0,WeatherCatV1.21B27,2013-10-09 08:56:00,
2013-10-09 03:57:00,56.9,48.0,29.78,SE,139,4.0,18.0,72,0.00,,,0.00,0,WeatherCatV1.21B27,2013-10-09 08:57:00,
2013-10-09 03:58:00,56.8,47.9,29.79,SSE,150,4.0,16.0,72,0.00,,,0.00,0,WeatherCatV1.21B27,2013-10-09 08:58:00,
2013-10-09 04:00:00,56.8,47.9,29.79,South,189,2.0,11.0,72,0.00,,,0.00,0,WeatherCatV1.21B27,2013-10-09 09:00:00,
2013-10-09 04:01:00,56.8,47.9,29.78,SE,134,9.0,9.0,72,0.00,,,0.00,0,WeatherCatV1.21B27,2013-10-09 09:01:00,
2013-10-09 04:02:00,56.8,47.9,29.78,SSE,151,3.0,9.0,72,0.00,,,0.00,0,WeatherCatV1.21B27,2013-10-09 09:02:00,
2013-10-09 04:03:00,56.7,47.8,29.79,SSE,149,2.0,4.0,72,0.00,,,0.00,0,WeatherCatV1.21B27,2013-10-09 09:03:00,
2013-10-09 04:06:00,56.6,48.0,29.78,South,176,4.0,10.0,73,0.00,,,0.00,0,WeatherCatV1.21B27,2013-10-09 09:06:00,
2013-10-09 04:07:00,56.6,48.0,29.78,South,180,5.0,13.0,73,0.00,,,0.00,0,WeatherCatV1.21B27,2013-10-09 09:07:00,
2013-10-09 04:08:00,56.6,48.0,29.78,South,189,10.0,12.0,73,0.00,,,0.00,0,WeatherCatV1.21B27,2013-10-09 09:08:00,
2013-10-09 04:09:00,56.6,48.0,29.78,SE,138,11.0,12.0,73,0.00,,,0.00,0,WeatherCatV1.21B27,2013-10-09 09:09:00,
2013-10-09 04:12:00,56.6,48.0,29.79,South,176,5.0,10.0,73,0.00,,,0.00,0,WeatherCatV1.21B27,2013-10-09 09:12:00,
2013-10-09 04:13:00,56.6,48.0,29.79,SSW,198,2.0,11.0,73,0.00,,,0.00,0,WeatherCatV1.21B27,2013-10-09 09:13:00,
2013-10-09 04:14:00,56.6,48.0,29.79,SSW,192,6.0,11.0,73,0.00,,,0.00,0,WeatherCatV1.21B27,2013-10-09 09:14:00,
2013-10-09 04:17:00,56.5,48.0,29.79,SSE,163,2.0,10.0,73,0.00,,,0.00,0,WeatherCatV1.21B27,2013-10-09 09:17:00,
2013-10-09 04:18:00,56.5,48.0,29.79,SSE,149,1.0,8.0,73,0.00,,,0.00,0,WeatherCatV1.21B27,2013-10-09 09:18:00,
2013-10-09 04:19:00,56.5,48.0,29.79,South,186,4.0,16.0,73,0.00,,,0.00,0,WeatherCatV1.21B27,2013-10-09 09:19:00,
2013-10-09 04:22:00,56.4,47.8,29.78,SSE,165,2.0,16.0,73,0.00,,,0.00,0,WeatherCatV1.21B27,2013-10-09 09:22:00,
2013-10-09 04:23:00,56.4,47.8,29.78,SE,142,4.0,16.0,73,0.00,,,0.00,0,WeatherCatV1.21B27,2013-10-09 09:23:00,
2013-10-09 04:24:00,56.4,47.8,29.78,SSW,198,11.0,11.0,73,0.00,,,0.00,0,WeatherCatV1.21B27,2013-10-09 09:24:00,
2013-10-09 04:27:00,56.4,47.8,29.78,SSE,150,6.0,9.0,73,0.00,,,0.00,0,WeatherCatV1.21B27,2013-10-09 09:27:00,
2013-10-09 04:28:00,56.4,47.8,29.78,SE,146,9.0,9.0,73,0.00,,,0.00,0,WeatherCatV1.21B27,2013-10-09 09:28:00,
2013-10-09 04:29:00,56.3,48.1,29.78,SSE,159,3.0,11.0,74,0.00,,,0.00,0,WeatherCatV1.21B27,2013-10-09 09:29:00,
2013-10-09 04:32:00,56.2,48.0,29.78,SSE,164,6.0,11.0,74,0.00,,,0.00,0,WeatherCatV1.21B27,2013-10-09 09:32:00,
2013-10-09 04:33:00,56.2,48.0,29.78,South,190,5.0,11.0,74,0.00,,,0.00,0,WeatherCatV1.21B27,2013-10-09 09:33:00,
2013-10-09 04:34:00,56.2,48.0,29.78,SSW,195,6.0,11.0,74,0.00,,,0.00,0,WeatherCatV1.21B27,2013-10-09 09:34:00,
2013-10-09 04:36:00,56.1,47.9,29.78,SSE,156,1.0,6.0,74,0.00,,,0.00,0,WeatherCatV1.21B27,2013-10-09 09:36:00,
2013-10-09 04:37:00,56.1,47.9,29.78,South,190,5.0,12.0,74,0.00,,,0.00,0,WeatherCatV1.21B27,2013-10-09 09:37:00,
2013-10-09 04:38:00,56.0,47.8,29.78,SE,129,3.0,13.0,74,0.00,,,0.00,0,WeatherCatV1.21B27,2013-10-09 09:38:00,
2013-10-09 04:39:00,56.0,47.8,29.78,SSE,154,9.0,13.0,74,0.00,,,0.00,0,WeatherCatV1.21B27,2013-10-09 09:39:00,
2013-10-09 04:41:00,55.9,47.7,29.78,South,172,4.0,11.0,74,0.00,,,0.00,0,WeatherCatV1.21B27,2013-10-09 09:41:00,
2013-10-09 04:42:00,55.9,47.7,29.78,South,180,6.0,13.0,74,0.00,,,0.00,0,WeatherCatV1.21B27,2013-10-09 09:42:00,
2013-10-09 04:44:00,55.9,47.7,29.78,SE,125,5.0,13.0,74,0.00,,,0.00,0,WeatherCatV1.21B27,2013-10-09 09:44:00,
2013-10-09 04:46:00,55.9,47.7,29.78,SE,137,3.0,9.0,74,0.00,,,0.00,0,WeatherCatV1.21B27,2013-10-09 09:46:00,
2013-10-09 04:47:00,55.9,48.1,29.78,SE,132,3.0,6.0,75,0.00,,,0.00,0,WeatherCatV1.21B27,2013-10-09 09:47:00,
2013-10-09 04:49:00,55.8,48.0,29.78,SE,136,0.0,6.0,75,0.00,,,0.00,0,WeatherCatV1.21B27,2013-10-09 09:49:00,
2013-10-09 04:52:00,55.7,47.9,29.78,SSE,157,6.0,15.0,75,0.00,,,0.00,0,WeatherCatV1.21B27,2013-10-09 09:52:00,
2013-10-09 04:53:00,55.7,47.9,29.78,SSE,156,1.0,15.0,75,0.00,,,0.00,0,WeatherCatV1.21B27,2013-10-09 09:53:00,
2013-10-09 04:54:00,55.6,47.8,29.78,SW,215,9.0,9.0,75,0.00,,,0.00,0,WeatherCatV1.21B27,2013-10-09 09:54:00,
2013-10-09 04:55:00,55.6,47.8,29.78,SE,144,2.0,9.0,75,0.00,,,0.00,0,WeatherCatV1.21B27,2013-10-09 09:55:00,
2013-10-09 04:57:00,55.5,47.7,29.78,South,173,6.0,7.0,75,0.00,,,0.00,0,WeatherCatV1.21B27,2013-10-09 09:57:00,
2013-10-09 04:58:00,55.5,47.7,29.78,SE,126,4.0,7.0,75,0.00,,,0.00,0,WeatherCatV1.21B27,2013-10-09 09:58:00,
2013-10-09 04:59:00,55.5,47.7,29.78,SSE,151,3.0,12.0,75,0.00,,,0.00,0,WeatherCatV1.21B27,2013-10-09 09:59:00,
2013-10-09 05:00:00,55.5,47.7,29.78,South,176,3.0,12.0,75,0.00,,,0.00,0,WeatherCatV1.21B27,2013-10-09 10:00:00,
2013-10-09 05:03:00,55.4,47.6,29.78,South,183,5.0,13.0,75,0.00,,,0.00,0,WeatherCatV1.21B27,2013-10-09 10:03:00,
2013-10-09 05:04:00,55.4,48.0,29.78,SE,135,5.0,10.0,76,0.00,,,0.00,0,WeatherCatV1.21B27,2013-10-09 10:04:00,
2013-10-09 05:05:00,55.4,48.0,29.78,SSE,155,1.0,10.0,76,0.00,,,0.00,0,WeatherCatV1.21B27,2013-10-09 10:05:00,
2013-10-09 05:08:00,55.3,47.9,29.78,SE,142,2.0,11.0,76,0.00,,,0.00,0,WeatherCatV1.21B27,2013-10-09 10:08:00,
2013-10-09 05:09:00,55.3,47.9,29.78,SE,142,3.0,11.0,76,0.00,,,0.00,0,WeatherCatV1.21B27,2013-10-09 10:09:00,
2013-10-09 05:10:00,55.3,47.9,29.78,SSE,163,2.0,11.0,76,0.00,,,0.00,0,WeatherCatV1.21B27,2013-10-09 10:10:00,
2013-10-09 05:11:00,55.3,47.9,29.78,SE,130,9.0,11.0,76,0.00,,,0.00,0,WeatherCatV1.21B27,2013-10-09 10:11:00,
2013-10-09 05:13:00,55.2,47.8,29.78,SSE,167,2.0,9.0,76,0.00,,,0.00,0,WeatherCatV1.21B27,2013-10-09 10:13:00,
2013-10-09 05:14:00,55.2,47.8,29.78,SE,133,7.0,7.0,76,0.00,,,0.00,0,WeatherCatV1.21B27,2013-10-09 10:14:00,
2013-10-09 05:15:00,55.1,47.7,29.78,ESE,122,10.0,10.0,76,0.00,,,0.00,0,WeatherCatV1.21B27,2013-10-09 10:15:00,
2013-10-09 05:16:00,55.1,47.7,29.78,South,186,2.0,10.0,76,0.00,,,0.00,0,WeatherCatV1.21B27,2013-10-09 10:16:00,
2013-10-09 05:19:00,55.1,47.7,29.78,SW,222,3.0,10.0,76,0.00,,,0.00,0,WeatherCatV1.21B27,2013-10-09 10:19:00,
2013-10-09 05:20:00,55.0,47.6,29.78,East,99,0.0,10.0,76,0.00,,,0.00,0,WeatherCatV1.21B27,2013-10-09 10:20:00,
2013-10-09 05:21:00,55.0,47.6,29.78,SE,129,3.0,9.0,76,0.00,,,0.00,0,WeatherCatV1.21B27,2013-10-09 10:21:00,
2013-10-09 05:24:00,55.0,47.6,29.78,SE,142,1.0,5.0,76,0.00,,,0.00,0,WeatherCatV1.21B27,2013-10-09 10:24:00,
2013-10-09 05:25:00,54.9,47.5,29.78,SE,126,5.0,5.0,76,0.00,,,0.00,0,WeatherCatV1.21B27,2013-10-09 10:25:00,
2013-10-09 05:26:00,54.9,47.8,29.78,SSE,168,5.0,7.0,77,0.00,,,0.00,0,WeatherCatV1.21B27,2013-10-09 10:26:00,
2013-10-09 05:29:00,54.8,47.7,29.78,SE,145,5.0,9.0,77,0.00,,,0.00,0,WeatherCatV1.21B27,2013-10-09 10:29:00,
2013-10-09 05:30:00,54.8,47.7,29.78,SE,136,4.0,9.0,77,0.00,,,0.00,0,WeatherCatV1.21B27,2013-10-09 10:30:00,
2013-10-09 05:31:00,54.8,47.7,29.78,SE,136,3.0,9.0,77,0.00,,,0.00,0,WeatherCatV1.21B27,2013-10-09 10:31:00,
2013-10-09 05:35:00,54.8,47.7,29.78,South,190,5.0,14.0,77,0.00,,,0.00,0,WeatherCatV1.21B27,2013-10-09 10:35:00,
2013-10-09 05:36:00,54.7,47.6,29.78,SE,136,10.0,14.0,77,0.00,,,0.00,0,WeatherCatV1.21B27,2013-10-09 10:36:00,
2013-10-09 05:37:00,54.8,47.7,29.78,SSE,154,7.0,14.0,77,0.00,,,0.00,0,WeatherCatV1.21B27,2013-10-09 10:37:00,
2013-10-09 05:40:00,54.7,47.6,29.78,SSE,153,5.0,10.0,77,0.00,,,0.00,0,WeatherCatV1.21B27,2013-10-09 10:40:00,
2013-10-09 05:41:00,54.7,47.6,29.78,SSW,201,2.0,7.0,77,0.00,,,0.00,0,WeatherCatV1.21B27,2013-10-09 10:41:00,
2013-10-09 05:42:00,54.7,47.6,29.78,SSW,200,1.0,5.0,77,0.00,,,0.00,0,WeatherCatV1.21B27,2013-10-09 10:42:00,
2013-10-09 05:45:00,54.6,47.5,29.78,SSE,152,4.0,10.0,77,0.00,,,0.00,0,WeatherCatV1.21B27,2013-10-09 10:45:00,
2013-10-09 05:46:00,54.6,47.5,29.79,SSE,156,7.0,10.0,77,0.00,,,0.00,0,WeatherCatV1.21B27,2013-10-09 10:46:00,
2013-10-09 05:47:00,54.6,47.5,29.79,SE,140,2.0,10.0,77,0.00,,,0.00,0,WeatherCatV1.21B27,2013-10-09 10:47:00,
2013-10-09 05:48:00,54.6,47.5,29.79,SSE,159,9.0,13.0,77,0.00,,,0.00,0,WeatherCatV1.21B27,2013-10-09 10:48:00,
2013-10-09 05:50:00,54.6,47.5,29.79,SSE,153,0.0,5.0,77,0.00,,,0.00,0,WeatherCatV1.21B27,2013-10-09 10:50:00,
2013-10-09 05:51:00,54.6,47.5,29.79,SSE,156,4.0,5.0,77,0.00,,,0.00,0,WeatherCatV1.21B27,2013-10-09 10:51:00,
2013-10-09 05:52:00,54.6,47.5,29.78,South,175,4.0,6.0,77,0.00,,,0.00,0,WeatherCatV1.21B27,2013-10-09 10:52:00,
2013-10-09 05:53:00,54.5,47.4,29.78,SSE,153,5.0,10.0,77,0.00,,,0.00,0,WeatherCatV1.21B27,2013-10-09 10:53:00,
2013-10-09 05:55:00,54.5,47.4,29.79,SSW,194,6.0,10.0,77,0.00,,,0.00,0,WeatherCatV1.21B27,2013-10-09 10:55:00,
2013-10-09 05:56:00,54.5,47.4,29.79,South,184,5.0,9.0,77,0.00,,,0.00,0,WeatherCatV1.21B27,2013-10-09 10:56:00,
2013-10-09 05:57:00,54.4,47.3,29.78,SE,127,5.0,10.0,77,0.00,,,0.00,0,WeatherCatV1.21B27,2013-10-09 10:57:00,
2013-10-09 05:58:00,54.4,47.3,29.78,South,190,6.0,13.0,77,0.00,,,0.00,0,WeatherCatV1.21B27,2013-10-09 10:58:00,
2013-10-09 05:59:00,54.4,47.7,29.78,SE,129,10.0,13.0,78,0.00,,,0.00,0,WeatherCatV1.21B27,2013-10-09 10:59:00,
2013-10-09 06:00:00,54.4,47.7,29.78,SE,145,4.0,10.0,78,0.00,,,0.00,0,WeatherCatV1.21B27,2013-10-09 11:00:00,
2013-10-09 06:01:00,54.4,47.7,29.78,SSE,167,7.0,7.0,78,0.00,,,0.00,0,WeatherCatV1.21B27,2013-10-09 11:01:00,
2013-10-09 06:02:00,54.4,47.7,29.78,South,175,3.0,11.0,78,0.00,,,0.00,0,WeatherCatV1.21B27,2013-10-09 11:02:00,
2013-10-09 06:03:00,54.4,47.7,29.79,SE,137,10.0,11.0,78,0.00,,,0.00,0,WeatherCatV1.21B27,2013-10-09 11:03:00,
2013-10-09 06:04:00,54.3,47.6,29.79,SSE,161,1.0,7.0,78,0.00,,,0.00,0,WeatherCatV1.21B27,2013-10-09 11:04:00,
2013-10-09 06:06:00,54.3,47.6,29.78,SE,126,7.0,7.0,78,0.00,,,0.00,0,WeatherCatV1.21B27,2013-10-09 11:06:00,
2013-10-09 06:08:00,54.2,47.5,29.78,SE,126,2.0,9.0,78,0.00,,,0.00,0,WeatherCatV1.21B27,2013-10-09 11:08:00,
2013-10-09 06:09:00,54.2,47.5,29.79,SE,140,2.0,8.0,78,0.00,,,0.00,0,WeatherCatV1.21B27,2013-10-09 11:09:00,
2013-10-09 06:11:00,54.1,47.4,29.78,SE,144,3.0,7.0,78,0.00,,,0.00,0,WeatherCatV1.21B27,2013-10-09 11:11:00,
2013-10-09 06:12:00,54.1,47.4,29.78,SSE,147,3.0,7.0,78,0.00,,,0.00,0,WeatherCatV1.21B27,2013-10-09 11:12:00,
2013-10-09 06:13:00,54.1,47.4,29.79,SSW,202,1.0,10.0,78,0.00,,,0.00,0,WeatherCatV1.21B27,2013-10-09 11:13:00,
2013-10-09 06:14:00,54.1,47.4,29.79,SE,125,1.0,12.0,78,0.00,,,0.00,0,WeatherCatV1.21B27,2013-10-09 11:14:00,
2013-10-09 06:16:00,54.0,47.3,29.79,SSE,153,2.0,13.0,78,0.00,,,0.00,0,WeatherCatV1.21B27,2013-10-09 11:16:00,
2013-10-09 06:17:00,54.0,47.3,29.79,SSE,148,6.0,13.0,78,0.00,,,0.00,0,WeatherCatV1.21B27,2013-10-09 11:17:00,
2013-10-09 06:18:00,54.0,47.3,29.79,SE,140,1.0,5.0,78,0.00,,,0.00,0,WeatherCatV1.21B27,2013-10-09 11:18:00,
2013-10-09 06:20:00,54.0,47.3,29.79,ESE,120,3.0,8.0,78,0.00,,,0.00,0,WeatherCatV1.21B27,2013-10-09 11:20:00,
2013-10-09 06:21:00,54.0,47.3,29.79,South,171,0.0,10.0,78,0.00,,,0.00,0,WeatherCatV1.21B27,2013-10-09 11:21:00,
2013-10-09 06:22:00,54.0,47.3,29.79,SE,129,6.0,10.0,78,0.00,,,0.00,0,WeatherCatV1.21B27,2013-10-09 11:22:00,
2013-10-09 06:23:00,53.9,47.5,29.79,SE,130,4.0,4.0,79,0.00,,,0.00,0,WeatherCatV1.21B27,2013-10-09 11:23:00,
2013-10-09 06:24:00,53.9,47.5,29.79,SSE,150,5.0,6.0,79,0.00,,,0.00,0,WeatherCatV1.21B27,2013-10-09 11:24:00,
2013-10-09 06:25:00,53.9,47.5,29.79,SE,136,4.0,10.0,79,0.00,,,0.00,0,WeatherCatV1.21B27,2013-10-09 11:25:00,
2013-10-09 06:26:00,53.8,47.4,29.79,SSE,147,6.0,11.0,79,0.00,,,0.00,0,WeatherCatV1.21B27,2013-10-09 11:26:00,
2013-10-09 06:27:00,53.9,47.5,29.79,SSE,148,4.0,11.0,79,0.00,,,0.00,0,WeatherCatV1.21B27,2013-10-09 11:27:00,
2013-10-09 06:29:00,53.8,47.4,29.79,SE,136,9.0,9.0,79,0.00,,,0.00,0,WeatherCatV1.21B27,2013-10-09 11:29:00,
2013-10-09 06:30:00,53.8,47.4,29.79,SE,138,9.0,9.0,79,0.00,,,0.00,0,WeatherCatV1.21B27,2013-10-09 11:30:00,
2013-10-09 06:31:00,53.8,47.4,29.79,SSE,148,6.0,9.0,79,0.00,,,0.00,0,WeatherCatV1.21B27,2013-10-09 11:31:00,
2013-10-09 06:32:00,53.8,47.4,29.79,ESE,123,5.0,9.0,79,0.00,,,0.00,0,WeatherCatV1.21B27,2013-10-09 11:32:00,
2013-10-09 06:34:00,53.8,47.4,29.79,SSE,163,0.0,9.0,79,0.00,,,0.00,0,WeatherCatV1.21B27,2013-10-09 11:34:00,
2013-10-09 06:35:00,53.7,47.3,29.79,SE,135,3.0,6.0,79,0.00,,,0.00,0,WeatherCatV1.21B27,2013-10-09 11:35:00,
2013-10-09 06:37:00,53.7,47.3,29.79,SSE,155,0.0,6.0,79,0.00,,,0.00,0,WeatherCatV1.21B27,2013-10-09 11:37:00,
2013-10-09 06:39:00,53.7,47.3,29.79,SE,133,6.0,10.0,79,0.00,,,0.00,0,WeatherCatV1.21B27,2013-10-09 11:39:00,
2013-10-09 06:40:00,53.6,47.2,29.79,South,184,3.0,7.0,79,0.00,,,0.00,0,WeatherCatV1.21B27,2013-10-09 11:40:00,
2013-10-09 06:42:00,53.6,47.2,29.79,SSE,148,4.0,8.0,79,0.00,,,0.00,0,WeatherCatV1.21B27,2013-10-09 11:42:00,
2013-10-09 06:44:00,53.6,47.2,29.79,SSE,152,2.0,6.0,79,0.00,,,0.00,0,WeatherCatV1.21B27,2013-10-09 11:44:00,
2013-10-09 06:45:00,53.6,47.2,29.79,SSE,150,6.0,6.0,79,0.00,,,0.00,0,WeatherCatV1.21B27,2013-10-09 11:45:00,
2013-10-09 06:46:00,53.6,47.2,29.79,SSE,153,5.0,6.0,79,0.00,,,0.00,0,WeatherCatV1.21B27,2013-10-09 11:46:00,
2013-10-09 06:47:00,53.6,47.2,29.79,SSE,161,2.0,12.0,79,0.00,,,0.00,0,WeatherCatV1.21B27,2013-10-09 11:47:00,
2013-10-09 06:48:00,53.6,47.2,29.79,SSE,167,4.0,12.0,79,0.00,,,0.00,0,WeatherCatV1.21B27,2013-10-09 11:48:00,
2013-10-09 06:50:00,53.5,47.2,29.79,SE,137,3.0,7.0,79,0.00,,,0.00,0,WeatherCatV1.21B27,2013-10-09 11:50:00,
2013-10-09 06:51:00,53.6,47.2,29.79,SE,135,4.0,7.0,79,0.00,,,0.00,0,WeatherCatV1.21B27,2013-10-09 11:51:00,
2013-10-09 06:52:00,53.6,47.2,29.79,SSE,153,4.0,9.0,79,0.00,,,0.00,0,WeatherCatV1.21B27,2013-10-09 11:52:00,
2013-10-09 06:53:00,53.5,47.2,29.79,SSE,160,7.0,12.0,79,0.00,,,0.00,0,WeatherCatV1.21B27,2013-10-09 11:53:00,
2013-10-09 06:55:00,53.6,47.2,29.79,SE,136,4.0,10.0,79,0.00,,,0.00,0,WeatherCatV1.21B27,2013-10-09 11:55:00,
2013-10-09 06:56:00,53.6,47.2,29.79,SE,140,7.0,9.0,79,0.00,,,0.00,0,WeatherCatV1.21B27,2013-10-09 11:56:00,
2013-10-09 06:57:00,53.6,47.2,29.79,SE,144,3.0,9.0,79,0.00,,,0.00,0,WeatherCatV1.21B27,2013-10-09 11:57:00,
2013-10-09 06:58:00,53.6,47.2,29.79,SSE,165,1.0,9.0,79,0.00,,,0.00,0,WeatherCatV1.21B27,2013-10-09 11:58:00,
2013-10-09 07:00:00,53.5,47.2,29.79,SE,137,7.0,11.0,79,0.00,,,0.00,0,WeatherCatV1.21B27,2013-10-09 12:00:00,
2013-10-09 07:01:00,53.5,47.2,29.79,SE,137,2.0,11.0,79,0.00,,,0.00,0,WeatherCatV1.21B27,2013-10-09 12:01:00,
2013-10-09 07:02:00,53.6,47.2,29.79,SSE,163,3.0,6.0,79,0.00,,,0.00,0,WeatherCatV1.21B27,2013-10-09 12:02:00,
2013-10-09 07:03:00,53.6,47.2,29.79,SSE,163,3.0,6.0,79,0.00,,,0.00,0,WeatherCatV1.21B27,2013-10-09 12:03:00,
2013-10-09 07:04:00,53.5,47.2,29.79,SE,139,7.0,9.0,79,0.00,,,0.00,0,WeatherCatV1.21B27,2013-10-09 12:04:00,
2013-10-09 07:06:00,53.5,47.2,29.79,SSE,166,4.0,10.0,79,0.00,,,0.00,0,WeatherCatV1.21B27,2013-10-09 12:06:00,
2013-10-09 07:07:00,53.5,47.2,29.79,South,171,4.0,10.0,79,0.00,,,0.00,0,WeatherCatV1.21B27,2013-10-09 12:07:00,
2013-10-09 07:08:00,53.5,47.2,29.79,ESE,123,4.0,7.0,79,0.00,,,0.00,0,WeatherCatV1.21B27,2013-10-09 12:08:00,
2013-10-09 07:09:00,53.5,47.2,29.79,SSE,160,7.0,10.0,79,0.00,,,0.00,0,WeatherCatV1.21B27,2013-10-09 12:09:00,
2013-10-09 07:11:00,53.4,47.0,29.79,SE,131,1.0,6.0,79,0.00,,,0.00,0,WeatherCatV1.21B27,2013-10-09 12:11:00,
2013-10-09 07:12:00,53.4,47.0,29.79,ESE,115,9.0,9.0,79,0.00,,,0.00,0,WeatherCatV1.21B27,2013-10-09 12:12:00,
2013-10-09 07:13:00,53.4,47.0,29.79,SSE,153,2.0,9.0,79,0.00,,,0.00,0,WeatherCatV1.21B27,2013-10-09 12:13:00,
2013-10-09 07:14:00,53.4,47.0,29.79,South,180,4.0,9.0,79,0.00,,,0.00,0,WeatherCatV1.21B27,2013-10-09 12:14:00,
2013-10-09 07:16:00,53.3,47.3,29.80,SE,138,4.0,5.0,80,0.00,,,0.00,0,WeatherCatV1.21B27,2013-10-09 12:16:00,
2013-10-09 07:17:00,53.3,47.3,29.80,South,172,5.0,8.0,80,0.00,,,0.00,0,WeatherCatV1.21B27,2013-10-09 12:17:00,
2013-10-09 07:18:00,53.3,47.3,29.80,South,191,2.0,8.0,80,0.00,,,0.00,0,WeatherCatV1.21B27,2013-10-09 12:18:00,
2013-10-09 07:19:00,53.3,47.3,29.80,South,191,2.0,8.0,80,0.00,,,0.00,0,WeatherCatV1.21B27,2013-10-09 12:19:00,
2013-10-09 07:21:00,53.4,47.4,29.80,South,191,1.0,11.0,80,0.00,,,0.00,0,WeatherCatV1.21B27,2013-10-09 12:21:00,
2013-10-09 07:22:00,53.4,47.4,29.80,South,191,3.0,7.0,80,0.00,,,0.00,0,WeatherCatV1.21B27,2013-10-09 12:22:00,
2013-10-09 07:24:00,53.4,47.4,29.80,South,191,0.0,7.0,80,0.00,,,0.00,0,WeatherCatV1.21B27,2013-10-09 12:24:00,
2013-10-09 07:25:00,53.3,47.3,29.80,South,185,5.0,5.0,80,0.00,,,0.00,0,WeatherCatV1.21B27,2013-10-09 12:25:00,
2013-10-09 07:26:00,53.3,47.3,29.79,SSW,192,3.0,12.0,80,0.00,,,0.00,0,WeatherCatV1.21B27,2013-10-09 12:26:00,
2013-10-09 07:28:00,53.3,47.3,29.79,SSE,161,1.0,13.0,80,0.00,,,0.00,0,WeatherCatV1.21B27,2013-10-09 12:28:00,
2013-10-09 07:29:00,53.4,47.4,29.79,SE,129,6.0,13.0,80,0.00,,,0.00,0,WeatherCatV1.21B27,2013-10-09 12:29:00,
2013-10-09 07:30:00,53.4,47.4,29.79,SE,142,7.0,7.0,80,0.00,,,0.00,0,WeatherCatV1.21B27,2013-10-09 12:30:00,
2013-10-09 07:31:00,53.4,47.4,29.79,South,191,1.0,7.0,80,0.00,,,0.00,0,WeatherCatV1.21B27,2013-10-09 12:31:00,
2013-10-09 07:33:00,53.3,47.3,29.79,SE,130,3.0,10.0,80,0.00,,,0.00,0,WeatherCatV1.21B27,2013-10-09 12:33:00,
2013-10-09 07:34:00,53.3,47.3,29.80,SE,129,3.0,10.0,80,0.00,,,0.00,0,WeatherCatV1.21B27,2013-10-09 12:34:00,
2013-10-09 07:35:00,53.3,47.3,29.80,SE,129,0.0,5.0,80,0.00,,,0.00,0,WeatherCatV1.21B27,2013-10-09 12:35:00,
2013-10-09 07:36:00,53.2,47.2,29.80,South,179,0.0,7.0,80,0.00,,,0.00,0,WeatherCatV1.21B27,2013-10-09 12:36:00,
2013-10-09 07:38:00,53.2,47.2,29.80,SE,141,0.0,9.0,80,0.00,,,0.00,5,WeatherCatV1.21B27,2013-10-09 12:38:00,
2013-10-09 07:39:00,53.2,47.2,29.80,SE,142,3.0,9.0,80,0.00,,,0.00,5,WeatherCatV1.21B27,2013-10-09 12:39:00,
2013-10-09 07:40:00,53.2,47.2,29.80,SE,141,7.0,7.0,80,0.00,,,0.00,5,WeatherCatV1.21B27,2013-10-09 12:40:00,
2013-10-09 07:42:00,53.1,47.1,29.80,SE,136,2.0,8.0,80,0.00,,,0.00,5,WeatherCatV1.21B27,2013-10-09 12:42:00,
2013-10-09 07:43:00,53.1,47.1,29.80,South,191,7.0,11.0,80,0.00,,,0.00,7,WeatherCatV1.21B27,2013-10-09 12:43:00,
2013-10-09 07:44:00,53.2,47.2,29.80,South,175,5.0,11.0,80,0.00,,,0.00,7,WeatherCatV1.21B27,2013-10-09 12:44:00,
2013-10-09 07:45:00,53.2,47.2,29.80,ESE,121,7.0,7.0,80,0.00,,,0.00,7,WeatherCatV1.21B27,2013-10-09 12:45:00,
2013-10-09 07:47:00,53.2,47.2,29.80,SE,130,0.0,7.0,80,0.00,,,0.00,7,WeatherCatV1.21B27,2013-10-09 12:47:00,
2013-10-09 07:49:00,53.1,47.1,29.80,SE,146,6.0,6.0,80,0.00,,,0.00,11,WeatherCatV1.21B27,2013-10-09 12:49:00,
2013-10-09 07:50:00,53.1,47.1,29.80,SE,144,3.0,9.0,80,0.00,,,0.00,11,WeatherCatV1.21B27,2013-10-09 12:50:00,
2013-10-09 07:52:00,53.2,47.2,29.80,SSE,153,1.0,10.0,80,0.00,,,0.00,12,WeatherCatV1.21B27,2013-10-09 12:52:00,
2013-10-09 07:54:00,53.2,47.2,29.80,ESE,121,1.0,8.0,80,0.00,,,0.00,16,WeatherCatV1.21B27,2013-10-09 12:54:00,
2013-10-09 07:55:00,53.2,47.2,29.80,ESE,121,0.0,8.0,80,0.00,,,0.00,16,WeatherCatV1.21B27,2013-10-09 12:55:00,
2013-10-09 07:56:00,53.2,47.2,29.80,SSE,152,4.0,7.0,80,0.00,,,0.00,16,WeatherCatV1.21B27,2013-10-09 12:56:00,
2013-10-09 07:57:00,53.2,47.2,29.80,South,181,5.0,11.0,80,0.00,,,0.00,18,WeatherCatV1.21B27,2013-10-09 12:57:00,
2013-10-09 07:59:00,53.3,47.3,29.80,SSE,149,5.0,11.0,80,0.00,,,0.00,21,WeatherCatV1.21B27,2013-10-09 12:59:00,
2013-10-09 08:00:00,53.3,47.3,29.80,SSE,149,4.0,11.0,80,0.00,,,0.00,21,WeatherCatV1.21B27,2013-10-09 13:00:00,
2013-10-09 08:01:00,53.4,47.4,29.80,ESE,109,4.0,11.0,80,0.00,,,0.00,21,WeatherCatV1.21B27,2013-10-09 13:01:00,
2013-10-09 08:02:00,53.5,47.5,29.80,SE,138,6.0,11.0,80,0.00,,,0.00,25,WeatherCatV1.21B27,2013-10-09 13:02:00,
2013-10-09 08:05:00,53.5,47.5,29.80,SE,140,4.0,6.0,80,0.00,,,0.00,30,WeatherCatV1.21B27,2013-10-09 13:05:00,
2013-10-09 08:06:00,53.6,47.6,29.80,ESE,111,5.0,9.0,80,0.00,,,0.00,32,WeatherCatV1.21B27,2013-10-09 13:06:00,
2013-10-09 08:07:00,53.7,47.3,29.80,SE,130,3.0,9.0,79,0.00,,,0.00,33,WeatherCatV1.21B27,2013-10-09 13:07:00,
2013-10-09 08:10:00,53.8,47.4,29.80,SE,131,0.0,2.0,79,0.00,,,0.00,39,WeatherCatV1.21B27,2013-10-09 13:10:00,
2013-10-09 08:11:00,53.9,47.5,29.80,SE,132,2.0,6.0,79,0.00,,,0.00,40,WeatherCatV1.21B27,2013-10-09 13:11:00,
2013-10-09 08:13:00,53.9,47.5,29.81,SSW,198,0.0,9.0,79,0.00,,,0.00,46,WeatherCatV1.21B27,2013-10-09 13:13:00,
2013-10-09 08:15:00,54.0,47.6,29.80,SE,132,2.0,10.0,79,0.00,,,0.00,53,WeatherCatV1.21B27,2013-10-09 13:15:00,
2013-10-09 08:16:00,54.0,47.6,29.80,ESE,105,10.0,10.0,79,0.00,,,0.00,56,WeatherCatV1.21B27,2013-10-09 13:16:00,
2013-10-09 08:17:00,54.1,47.7,29.80,South,180,6.0,10.0,79,0.00,,,0.00,56,WeatherCatV1.21B27,2013-10-09 13:17:00,
2013-10-09 08:18:00,54.1,47.7,29.80,SE,134,1.0,10.0,79,0.00,,,0.00,62,WeatherCatV1.21B27,2013-10-09 13:18:00,
2013-10-09 08:20:00,54.2,47.8,29.81,SE,133,3.0,5.0,79,0.00,,,0.00,67,WeatherCatV1.21B27,2013-10-09 13:20:00,
2013-10-09 08:21:00,54.3,47.9,29.81,SE,137,3.0,9.0,79,0.00,,,0.00,69,WeatherCatV1.21B27,2013-10-09 13:21:00,
2013-10-09 08:22:00,54.3,47.9,29.81,SW,221,10.0,10.0,79,0.00,,,0.00,72,WeatherCatV1.21B27,2013-10-09 13:22:00,
2013-10-09 08:23:00,54.4,47.7,29.81,SSE,148,3.0,10.0,78,0.00,,,0.00,74,WeatherCatV1.21B27,2013-10-09 13:23:00,
2013-10-09 08:26:00,54.4,47.7,29.81,SSE,154,3.0,7.0,78,0.00,,,0.00,84,WeatherCatV1.21B27,2013-10-09 13:26:00,
2013-10-09 08:27:00,54.5,47.8,29.81,SSE,163,2.0,7.0,78,0.00,,,0.00,86,WeatherCatV1.21B27,2013-10-09 13:27:00,
2013-10-09 08:28:00,54.5,47.8,29.81,SE,141,0.0,4.0,78,0.00,,,0.00,93,WeatherCatV1.21B27,2013-10-09 13:28:00,
2013-10-09 08:31:00,54.6,47.9,29.81,SSE,150,3.0,6.0,78,0.00,,,0.00,98,WeatherCatV1.21B27,2013-10-09 13:31:00,
2013-10-09 08:32:00,54.7,48.0,29.81,SSE,151,0.0,5.0,78,0.00,,,0.00,105,WeatherCatV1.21B27,2013-10-09 13:32:00,
2013-10-09 08:33:00,54.8,48.1,29.81,SSE,149,9.0,9.0,78,0.00,,,0.00,109,WeatherCatV1.21B27,2013-10-09 13:33:00,
2013-10-09 08:36:00,54.8,48.1,29.81,SE,128,5.0,6.0,78,0.00,,,0.00,120,WeatherCatV1.21B27,2013-10-09 13:36:00,
2013-10-09 08:37:00,54.8,47.7,29.81,SE,126,3.0,10.0,77,0.00,,,0.00,123,WeatherCatV1.21B27,2013-10-09 13:37:00,
2013-10-09 08:38:00,54.8,47.7,29.81,SE,126,6.0,10.0,77,0.00,,,0.00,127,WeatherCatV1.21B27,2013-10-09 13:38:00,
2013-10-09 08:41:00,54.9,48.2,29.81,SE,136,0.0,5.0,78,0.00,,,0.00,137,WeatherCatV1.21B27,2013-10-09 13:41:00,
2013-10-09 08:42:00,55.0,47.9,29.81,ESE,112,2.0,7.0,77,0.00,,,0.00,144,WeatherCatV1.21B27,2013-10-09 13:42:00,
2013-10-09 08:43:00,55.1,48.0,29.81,SE,125,3.0,7.0,77,0.00,,,0.00,148,WeatherCatV1.21B27,2013-10-09 13:43:00,
2013-10-09 08:44:00,55.1,48.0,29.81,SE,125,2.0,7.0,77,0.00,,,0.00,148,WeatherCatV1.21B27,2013-10-09 13:44:00,
2013-10-09 08:46:00,55.2,48.1,29.81,SE,143,3.0,8.0,77,0.00,,,0.00,155,WeatherCatV1.21B27,2013-10-09 13:46:00,
2013-10-09 08:48:00,55.3,48.2,29.81,SSE,164,11.0,11.0,77,0.00,,,0.00,162,WeatherCatV1.21B27,2013-10-09 13:48:00,
2013-10-09 08:49:00,55.3,48.2,29.81,SSE,163,3.0,11.0,77,0.00,,,0.00,165,WeatherCatV1.21B27,2013-10-09 13:49:00,
2013-10-09 08:51:00,55.4,48.0,29.81,SE,128,4.0,14.0,76,0.00,,,0.00,176,WeatherCatV1.21B27,2013-10-09 13:51:00,
2013-10-09 08:52:00,55.4,48.0,29.82,SE,134,4.0,14.0,76,0.00,,,0.00,179,WeatherCatV1.21B27,2013-10-09 13:52:00,
2013-10-09 08:53:00,55.5,48.1,29.82,SE,141,5.0,9.0,76,0.00,,,0.00,183,WeatherCatV1.21B27,2013-10-09 13:53:00,
2013-10-09 08:54:00,55.5,48.1,29.82,SSE,157,9.0,13.0,76,0.00,,,0.00,186,WeatherCatV1.21B27,2013-10-09 13:54:00,
2013-10-09 08:56:00,55.7,48.2,29.82,South,179,2.0,9.0,76,0.00,,,0.00,193,WeatherCatV1.21B27,2013-10-09 13:56:00,
2013-10-09 08:57:00,55.7,48.2,29.82,South,179,1.0,3.0,76,0.00,,,0.00,197,WeatherCatV1.21B27,2013-10-09 13:57:00,
2013-10-09 08:58:00,55.8,48.3,29.82,South,180,5.0,11.0,76,0.00,,,0.00,202,WeatherCatV1.21B27,2013-10-09 13:58:00,
2013-10-09 08:59:00,55.8,48.3,29.82,South,180,3.0,11.0,76,0.00,,,0.00,202,WeatherCatV1.21B27,2013-10-09 13:59:00,
2013-10-09 09:01:00,56.0,48.5,29.82,SE,145,3.0,10.0,76,0.00,,,0.00,213,WeatherCatV1.21B27,2013-10-09 14:01:00,
2013-10-09 09:02:00,56.0,48.5,29.82,SSE,150,5.0,10.0,76,0.00,,,0.00,216,WeatherCatV1.21B27,2013-10-09 14:02:00,
2013-10-09 09:04:00,56.1,48.6,29.82,SE,138,0.0,5.0,76,0.00,,,0.00,220,WeatherCatV1.21B27,2013-10-09 14:04:00,
2013-10-09 09:06:00,56.3,48.5,29.82,ESE,106,2.0,9.0,75,0.00,,,0.00,229,WeatherCatV1.21B27,2013-10-09 14:06:00,
2013-10-09 09:07:00,56.4,48.6,29.82,ESE,115,3.0,9.0,75,0.00,,,0.00,232,WeatherCatV1.21B27,2013-10-09 14:07:00,
2013-10-09 09:09:00,56.6,48.8,29.82,SE,141,5.0,7.0,75,0.00,,,0.00,237,WeatherCatV1.21B27,2013-10-09 14:09:00,
2013-10-09 09:11:00,56.7,48.5,29.82,South,185,5.0,9.0,74,0.00,,,0.00,248,WeatherCatV1.21B27,2013-10-09 14:11:00,
2013-10-09 09:12:00,56.7,48.9,29.82,SE,138,2.0,9.0,75,0.00,,,0.00,250,WeatherCatV1.21B27,2013-10-09 14:12:00,
2013-10-09 09:14:00,56.8,48.6,29.82,SSW,200,4.0,9.0,74,0.00,,,0.00,255,WeatherCatV1.21B27,2013-10-09 14:14:00,
2013-10-09 09:15:00,56.9,48.7,29.82,SE,134,11.0,11.0,74,0.00,,,0.00,255,WeatherCatV1.21B27,2013-10-09 14:15:00,
2013-10-09 09:16:00,56.9,48.7,29.82,SE,144,7.0,11.0,74,0.00,,,0.00,262,WeatherCatV1.21B27,2013-10-09 14:16:00,
2013-10-09 09:17:00,57.0,48.8,29.82,SE,126,12.0,12.0,74,0.00,,,0.00,264,WeatherCatV1.21B27,2013-10-09 14:17:00,
2013-10-09 09:18:00,57.0,48.8,29.82,SE,129,8.0,12.0,74,0.00,,,0.00,264,WeatherCatV1.21B27,2013-10-09 14:18:00,
2013-10-09 09:19:00,57.1,48.9,29.82,SE,133,7.0,11.0,74,0.00,,,0.00,271,WeatherCatV1.21B27,2013-10-09 14:19:00,
2013-10-09 09:20:00,57.1,48.9,29.82,SE,146,5.0,11.0,74,0.00,,,0.00,271,WeatherCatV1.21B27,2013-10-09 14:20:00,
2013-10-09 09:22:00,57.2,49.0,29.83,SSE,168,5.0,11.0,74,0.00,,,0.00,279,WeatherCatV1.21B27,2013-10-09 14:22:00,
2013-10-09 09:23:00,57.3,49.1,29.83,South,173,7.0,11.0,74,0.00,,,0.00,281,WeatherCatV1.21B27,2013-10-09 14:23:00,
2013-10-09 09:25:00,57.3,48.7,29.82,South,184,4.0,5.0,73,0.00,,,0.00,287,WeatherCatV1.21B27,2013-10-09 14:25:00,
2013-10-09 09:27:00,57.5,49.3,29.82,SSE,152,6.0,11.0,74,0.00,,,0.00,294,WeatherCatV1.21B27,2013-10-09 14:27:00,
2013-10-09 09:28:00,57.5,48.9,29.82,SE,125,7.0,13.0,73,0.00,,,0.00,297,WeatherCatV1.21B27,2013-10-09 14:28:00,
2013-10-09 09:30:00,57.6,49.0,29.83,SE,134,7.0,14.0,73,0.00,,,0.00,302,WeatherCatV1.21B27,2013-10-09 14:30:00,
2013-10-09 09:31:00,57.7,49.1,29.83,South,178,2.0,10.0,73,0.00,,,0.00,309,WeatherCatV1.21B27,2013-10-09 14:31:00,
2013-10-09 09:32:00,57.7,49.1,29.83,SSW,212,6.0,10.0,73,0.00,,,0.00,309,WeatherCatV1.21B27,2013-10-09 14:32:00,
2013-10-09 09:33:00,57.8,49.2,29.83,South,191,3.0,11.0,73,0.00,,,0.00,315,WeatherCatV1.21B27,2013-10-09 14:33:00,
2013-10-09 09:35:00,58.0,49.4,29.83,SE,134,3.0,3.0,73,0.00,,,0.00,320,WeatherCatV1.21B27,2013-10-09 14:35:00,
2013-10-09 09:37:00,58.1,49.1,29.83,SE,146,4.0,11.0,72,0.00,,,0.00,325,WeatherCatV1.21B27,2013-10-09 14:37:00,
2013-10-09 09:38:00,58.2,49.6,29.83,SSE,153,5.0,11.0,73,0.00,,,0.00,325,WeatherCatV1.21B27,2013-10-09 14:38:00,
2013-10-09 09:40:00,58.4,49.0,29.83,SSE,159,4.0,14.0,71,0.00,,,0.00,334,WeatherCatV1.21B27,2013-10-09 14:40:00,
2013-10-09 09:41:00,58.4,49.0,29.83,SW,217,11.0,14.0,71,0.00,,,0.00,338,WeatherCatV1.21B27,2013-10-09 14:41:00,
2013-10-09 09:42:00,58.4,49.4,29.83,South,184,7.0,12.0,72,0.00,,,0.00,341,WeatherCatV1.21B27,2013-10-09 14:42:00,
2013-10-09 09:43:00,58.5,49.5,29.83,SSE,165,5.0,12.0,72,0.00,,,0.00,346,WeatherCatV1.21B27,2013-10-09 14:43:00,
2013-10-09 09:45:00,58.8,49.4,29.83,SSE,156,5.0,13.0,71,0.00,,,0.00,352,WeatherCatV1.21B27,2013-10-09 14:45:00,
2013-10-09 09:46:00,58.9,49.5,29.83,SSW,199,5.0,7.0,71,0.00,,,0.00,355,WeatherCatV1.21B27,2013-10-09 14:46:00,
2013-10-09 09:47:00,59.0,49.6,29.83,South,188,11.0,12.0,71,0.00,,,0.00,359,WeatherCatV1.21B27,2013-10-09 14:47:00,
2013-10-09 09:48:00,59.0,49.6,29.83,SSW,209,9.0,13.0,71,0.00,,,0.00,362,WeatherCatV1.21B27,2013-10-09 14:48:00,
2013-10-09 09:49:00,59.0,49.6,29.83,ESE,120,7.0,13.0,71,0.00,,,0.00,362,WeatherCatV1.21B27,2013-10-09 14:49:00,
2013-10-09 09:50:00,59.0,49.6,29.83,South,182,3.0,12.0,71,0.00,,,0.00,366,WeatherCatV1.21B27,2013-10-09 14:50:00,
2013-10-09 09:52:00,59.1,49.3,29.83,ESE,118,7.0,11.0,70,0.00,,,0.00,373,WeatherCatV1.21B27,2013-10-09 14:52:00,
2013-10-09 09:53:00,59.2,49.0,29.83,SSW,197,5.0,18.0,69,0.00,,,0.00,373,WeatherCatV1.21B27,2013-10-09 14:53:00,
2013-10-09 09:54:00,59.3,49.5,29.83,SSW,192,3.0,10.0,70,0.00,,,0.00,376,WeatherCatV1.21B27,2013-10-09 14:54:00,
2013-10-09 09:55:00,59.4,49.6,29.83,South,172,5.0,10.0,70,0.00,,,0.00,383,WeatherCatV1.21B27,2013-10-09 14:55:00,
2013-10-09 09:57:00,59.5,49.3,29.83,SW,215,5.0,11.0,69,0.00,,,0.00,385,WeatherCatV1.21B27,2013-10-09 14:57:00,
2013-10-09 09:58:00,59.6,49.4,29.83,SSE,150,11.0,18.0,69,0.00,,,0.00,390,WeatherCatV1.21B27,2013-10-09 14:58:00,
2013-10-09 10:00:00,59.8,49.6,29.83,SSW,195,10.0,15.0,69,0.00,,,0.00,394,WeatherCatV1.21B27,2013-10-09 15:00:00,
2013-10-09 10:01:00,59.8,49.6,29.83,SSE,153,5.0,11.0,69,0.00,,,0.00,396,WeatherCatV1.21B27,2013-10-09 15:01:00,
2013-10-09 10:02:00,60.0,49.8,29.83,SSE,157,3.0,6.0,69,0.00,,,0.00,397,WeatherCatV1.21B27,2013-10-09 15:02:00,
2013-10-09 10:03:00,60.2,50.4,29.83,SSE,165,6.0,9.0,70,0.00,,,0.00,404,WeatherCatV1.21B27,2013-10-09 15:03:00,
2013-10-09 10:04:00,60.4,50.2,29.83,WSW,253,6.0,13.0,69,0.00,,,0.00,404,WeatherCatV1.21B27,2013-10-09 15:04:00,
2013-10-09 10:05:00,60.5,49.9,29.83,SSW,192,14.0,14.0,68,0.00,,,0.00,408,WeatherCatV1.21B27,2013-10-09 15:05:00,
2013-10-09 10:06:00,60.7,50.1,29.83,SW,216,5.0,14.0,68,0.00,,,0.00,411,WeatherCatV1.21B27,2013-10-09 15:06:00,
2013-10-09 10:07:00,60.7,50.1,29.83,SSW,199,6.0,8.0,68,0.00,,,0.00,415,WeatherCatV1.21B27,2013-10-09 15:07:00,
2013-10-09 10:08:00,60.7,50.1,29.83,SSE,168,1.0,8.0,68,0.00,,,0.00,418,WeatherCatV1.21B27,2013-10-09 15:08:00,
2013-10-09 10:09:00,60.8,50.2,29.83,SSE,157,1.0,7.0,68,0.00,,,0.00,420,WeatherCatV1.21B27,2013-10-09 15:09:00,
2013-10-09 10:10:00,61.0,50.4,29.83,SSW,204,11.0,15.0,68,0.00,,,0.00,424,WeatherCatV1.21B27,2013-10-09 15:10:00,
2013-10-09 10:12:00,60.9,49.9,29.83,SSW,196,5.0,7.0,67,0.00,,,0.00,429,WeatherCatV1.21B27,2013-10-09 15:12:00,
2013-10-09 10:13:00,61.0,50.0,29.83,SSW,202,5.0,14.0,67,0.00,,,0.00,431,WeatherCatV1.21B27,2013-10-09 15:13:00,
2013-10-09 10:14:00,61.1,50.1,29.83,SE,127,5.0,10.0,67,0.00,,,0.00,432,WeatherCatV1.21B27,2013-10-09 15:14:00,
2013-10-09 10:15:00,61.2,50.2,29.83,SSE,161,6.0,13.0,67,0.00,,,0.00,436,WeatherCatV1.21B27,2013-10-09 15:15:00,
2013-10-09 10:17:00,61.4,50.3,29.83,South,169,9.0,13.0,67,0.00,,,0.00,443,WeatherCatV1.21B27,2013-10-09 15:17:00,
2013-10-09 10:18:00,61.5,50.0,29.83,SSE,165,9.0,14.0,66,0.00,,,0.00,445,WeatherCatV1.21B27,2013-10-09 15:18:00,
2013-10-09 10:19:00,61.6,50.1,29.83,SSE,167,7.0,14.0,66,0.00,,,0.00,450,WeatherCatV1.21B27,2013-10-09 15:19:00,
2013-10-09 10:21:00,61.7,49.8,29.83,SSW,211,6.0,10.0,65,0.00,,,0.00,454,WeatherCatV1.21B27,2013-10-09 15:21:00,
2013-10-09 10:23:00,61.8,50.3,29.83,South,190,5.0,13.0,66,0.00,,,0.00,459,WeatherCatV1.21B27,2013-10-09 15:23:00,
2013-10-09 10:24:00,61.8,49.9,29.83,South,180,10.0,11.0,65,0.00,,,0.00,461,WeatherCatV1.21B27,2013-10-09 15:24:00,
2013-10-09 10:25:00,61.9,50.0,29.83,South,169,3.0,11.0,65,0.00,,,0.00,464,WeatherCatV1.21B27,2013-10-09 15:25:00,
2013-10-09 10:26:00,62.1,50.6,29.83,South,169,1.0,5.0,66,0.00,,,0.00,468,WeatherCatV1.21B27,2013-10-09 15:26:00,
2013-10-09 10:28:00,62.4,50.5,29.83,SSE,148,5.0,9.0,65,0.00,,,0.00,475,WeatherCatV1.21B27,2013-10-09 15:28:00,
2013-10-09 10:29:00,62.6,50.7,29.83,South,187,4.0,9.0,65,0.00,,,0.00,475,WeatherCatV1.21B27,2013-10-09 15:29:00,
2013-10-09 10:30:00,62.7,50.8,29.83,South,177,4.0,10.0,65,0.00,,,0.00,476,WeatherCatV1.21B27,2013-10-09 15:30:00,
2013-10-09 10:32:00,63.0,50.6,29.83,SSE,159,1.0,7.0,64,0.00,,,0.00,482,WeatherCatV1.21B27,2013-10-09 15:32:00,
2013-10-09 10:33:00,63.1,50.3,29.84,South,184,5.0,11.0,63,0.00,,,0.00,487,WeatherCatV1.21B27,2013-10-09 15:33:00,
2013-10-09 10:34:00,63.2,50.8,29.84,SSW,202,3.0,15.0,64,0.00,,,0.00,489,WeatherCatV1.21B27,2013-10-09 15:34:00,
2013-10-09 10:35:00,63.2,50.4,29.84,SSW,199,10.0,15.0,63,0.00,,,0.00,489,WeatherCatV1.21B27,2013-10-09 15:35:00,
2013-10-09 10:37:00,63.3,50.5,29.84,SSE,161,6.0,12.0,63,0.00,,,0.00,496,WeatherCatV1.21B27,2013-10-09 15:37:00,
2013-10-09 10:38:00,63.4,50.2,29.84,South,178,3.0,11.0,62,0.00,,,0.00,499,WeatherCatV1.21B27,2013-10-09 15:38:00,
2013-10-09 10:39:00,63.4,50.2,29.84,South,176,7.0,11.0,62,0.00,,,0.00,496,WeatherCatV1.21B27,2013-10-09 15:39:00,
2013-10-09 10:40:00,63.5,50.7,29.84,SE,131,4.0,12.0,63,0.00,,,0.00,503,WeatherCatV1.21B27,2013-10-09 15:40:00,
2013-10-09 10:42:00,63.8,50.5,29.84,SE,144,1.0,11.0,62,0.00,,,0.00,510,WeatherCatV1.21B27,2013-10-09 15:42:00,
2013-10-09 10:44:00,64.0,51.2,29.84,SSE,163,6.0,11.0,63,0.00,,,0.00,512,WeatherCatV1.21B27,2013-10-09 15:44:00,
2013-10-09 10:45:00,64.0,50.3,29.84,SSW,213,7.0,16.0,61,0.00,,,0.00,515,WeatherCatV1.21B27,2013-10-09 15:45:00,
2013-10-09 10:48:00,64.1,50.8,29.84,SW,214,3.0,7.0,62,0.00,,,0.00,520,WeatherCatV1.21B27,2013-10-09 15:48:00,
2013-10-09 10:49:00,64.3,50.6,29.84,SSW,207,9.0,10.0,61,0.00,,,0.00,526,WeatherCatV1.21B27,2013-10-09 15:49:00,
2013-10-09 10:50:00,64.3,50.6,29.84,South,176,12.0,12.0,61,0.00,,,0.00,526,WeatherCatV1.21B27,2013-10-09 15:50:00,
2013-10-09 10:53:00,64.4,50.2,29.84,SSW,208,4.0,11.0,60,0.00,,,0.00,534,WeatherCatV1.21B27,2013-10-09 15:53:00,
2013-10-09 10:55:00,64.5,50.3,29.84,SSE,160,4.0,12.0,60,0.00,,,0.00,540,WeatherCatV1.21B27,2013-10-09 15:55:00,
2013-10-09 10:58:00,64.8,50.6,29.84,SW,223,2.0,13.0,60,0.00,,,0.00,545,WeatherCatV1.21B27,2013-10-09 15:58:00,
2013-10-09 11:00:00,65.0,50.8,29.84,SSE,167,5.0,11.0,60,0.00,,,0.00,548,WeatherCatV1.21B27,2013-10-09 16:00:00,
2013-10-09 11:03:00,65.3,50.6,29.84,South,186,8.0,12.0,59,0.00,,,0.00,557,WeatherCatV1.21B27,2013-10-09 16:03:00,
2013-10-09 11:05:00,65.5,50.3,29.84,SE,128,10.0,16.0,58,0.00,,,0.00,561,WeatherCatV1.21B27,2013-10-09 16:05:00,
2013-10-09 11:06:00,65.5,50.8,29.84,South,181,4.0,16.0,59,0.00,,,0.00,561,WeatherCatV1.21B27,2013-10-09 16:06:00,
2013-10-09 11:08:00,65.9,51.6,29.83,South,169,2.0,12.0,60,0.00,,,0.00,568,WeatherCatV1.21B27,2013-10-09 16:08:00,
2013-10-09 11:10:00,66.1,51.3,29.84,SW,220,10.0,17.0,59,0.00,,,0.00,571,WeatherCatV1.21B27,2013-10-09 16:10:00,
2013-10-09 11:11:00,66.1,50.9,29.84,SW,217,6.0,17.0,58,0.00,,,0.00,573,WeatherCatV1.21B27,2013-10-09 16:11:00,
2013-10-09 11:14:00,66.4,50.7,29.84,South,190,3.0,12.0,57,0.00,,,0.00,578,WeatherCatV1.21B27,2013-10-09 16:14:00,
2013-10-09 11:15:00,66.4,50.7,29.83,SSW,211,3.0,12.0,57,0.00,,,0.00,580,WeatherCatV1.21B27,2013-10-09 16:15:00,
2013-10-09 11:16:00,66.4,50.7,29.83,SSW,202,3.0,14.0,57,0.00,,,0.00,582,WeatherCatV1.21B27,2013-10-09 16:16:00,
2013-10-09 11:19:00,66.8,51.1,29.84,SSE,152,1.0,7.0,57,0.00,,,0.00,589,WeatherCatV1.21B27,2013-10-09 16:19:00,
2013-10-09 11:20:00,67.0,51.3,29.84,SE,142,10.0,12.0,57,0.00,,,0.00,591,WeatherCatV1.21B27,2013-10-09 16:20:00,
2013-10-09 11:21:00,67.0,51.3,29.84,SSE,162,5.0,12.0,57,0.00,,,0.00,591,WeatherCatV1.21B27,2013-10-09 16:21:00,
2013-10-09 11:24:00,67.3,51.5,29.84,SSE,168,2.0,10.0,57,0.00,,,0.00,596,WeatherCatV1.21B27,2013-10-09 16:24:00,
2013-10-09 11:25:00,67.4,51.2,29.83,SSE,155,3.0,11.0,56,0.00,,,0.00,603,WeatherCatV1.21B27,2013-10-09 16:25:00,
2013-10-09 11:26:00,67.5,51.2,29.83,South,173,4.0,11.0,56,0.00,,,0.00,603,WeatherCatV1.21B27,2013-10-09 16:26:00,
2013-10-09 11:30:00,67.7,51.4,29.83,South,178,9.0,12.0,56,0.00,,,0.00,610,WeatherCatV1.21B27,2013-10-09 16:30:00,
2013-10-09 11:31:00,67.7,50.9,29.83,SSW,213,13.0,13.0,55,0.00,,,0.00,610,WeatherCatV1.21B27,2013-10-09 16:31:00,
2013-10-09 11:35:00,67.8,51.5,29.83,SSE,159,2.0,7.0,56,0.00,,,0.00,619,WeatherCatV1.21B27,2013-10-09 16:35:00,
2013-10-09 11:36:00,67.9,51.6,29.83,SSE,163,6.0,7.0,56,0.00,,,0.00,619,WeatherCatV1.21B27,2013-10-09 16:36:00,
2013-10-09 11:37:00,68.1,51.8,29.83,South,169,3.0,6.0,56,0.00,,,0.00,621,WeatherCatV1.21B27,2013-10-09 16:37:00,
2013-10-09 11:41:00,68.2,51.4,29.83,South,190,4.0,11.0,55,0.00,,,0.00,626,WeatherCatV1.21B27,2013-10-09 16:41:00,
2013-10-09 11:42:00,68.0,50.7,29.83,SSE,161,9.0,15.0,54,0.00,,,0.00,629,WeatherCatV1.21B27,2013-10-09 16:42:00,
2013-10-09 11:46:00,67.9,51.6,29.83,South,170,2.0,13.0,56,0.00,,,0.00,635,WeatherCatV1.21B27,2013-10-09 16:46:00,
2013-10-09 11:47:00,68.1,50.8,29.83,SSW,210,16.0,17.0,54,0.00,,,0.00,636,WeatherCatV1.21B27,2013-10-09 16:47:00,
2013-10-09 11:51:00,68.5,51.7,29.83,SW,231,11.0,11.0,55,0.00,,,0.00,642,WeatherCatV1.21B27,2013-10-09 16:51:00,
2013-10-09 11:52:00,68.6,51.3,29.83,SSW,192,9.0,11.0,54,0.00,,,0.00,645,WeatherCatV1.21B27,2013-10-09 16:52:00,
2013-10-09 11:56:00,68.7,50.9,29.83,SW,215,10.0,11.0,53,0.00,,,0.00,650,WeatherCatV1.21B27,2013-10-09 16:56:00,
2013-10-09 11:57:00,68.7,50.9,29.83,SSE,163,7.0,15.0,53,0.00,,,0.00,652,WeatherCatV1.21B27,2013-10-09 16:57:00,
2013-10-09 11:59:00,68.7,50.9,29.83,SW,225,7.0,9.0,53,0.00,,,0.00,656,WeatherCatV1.21B27,2013-10-09 16:59:00,
2013-10-09 12:01:00,68.8,51.0,29.83,SSW,199,2.0,11.0,53,0.00,,,0.00,656,WeatherCatV1.21B27,2013-10-09 17:01:00,
2013-10-09 12:02:00,68.9,51.0,29.83,ESE,107,5.0,11.0,53,0.00,,,0.00,656,WeatherCatV1.21B27,2013-10-09 17:02:00,
2013-10-09 12:03:00,69.0,50.6,29.83,SE,134,10.0,13.0,52,0.00,,,0.00,661,WeatherCatV1.21B27,2013-10-09 17:03:00,
2013-10-09 12:05:00,69.2,51.3,29.83,ESE,117,3.0,16.0,53,0.00,,,0.00,663,WeatherCatV1.21B27,2013-10-09 17:05:00,
2013-10-09 12:06:00,69.3,50.9,29.83,South,183,4.0,16.0,52,0.00,,,0.00,663,WeatherCatV1.21B27,2013-10-09 17:06:00,
2013-10-09 12:07:00,69.4,51.0,29.83,South,183,3.0,16.0,52,0.00,,,0.00,663,WeatherCatV1.21B27,2013-10-09 17:07:00,
2013-10-09 12:08:00,69.5,51.1,29.83,SE,136,12.0,12.0,52,0.00,,,0.00,666,WeatherCatV1.21B27,2013-10-09 17:08:00,
2013-10-09 12:11:00,69.7,51.3,29.83,SSW,197,11.0,13.0,52,0.00,,,0.00,668,WeatherCatV1.21B27,2013-10-09 17:11:00,
2013-10-09 12:12:00,69.6,50.7,29.83,South,172,1.0,13.0,51,0.00,,,0.00,668,WeatherCatV1.21B27,2013-10-09 17:12:00,
2013-10-09 12:13:00,69.7,50.8,29.83,SSE,150,3.0,10.0,51,0.00,,,0.00,671,WeatherCatV1.21B27,2013-10-09 17:13:00,
2013-10-09 12:16:00,69.9,50.9,29.82,SE,134,3.0,11.0,51,0.00,,,0.00,675,WeatherCatV1.21B27,2013-10-09 17:16:00,
2013-10-09 12:17:00,69.9,51.5,29.83,SSW,200,11.0,11.0,52,0.00,,,0.00,675,WeatherCatV1.21B27,2013-10-09 17:17:00,
2013-10-09 12:18:00,70.0,51.0,29.83,SE,130,7.0,11.0,51,0.00,,,0.00,679,WeatherCatV1.21B27,2013-10-09 17:18:00,
2013-10-09 12:19:00,70.1,51.6,29.82,SW,232,4.0,10.0,52,0.00,,,0.00,679,WeatherCatV1.21B27,2013-10-09 17:19:00,
2013-10-09 12:22:00,70.2,51.2,29.82,South,189,5.0,12.0,51,0.00,,,0.00,682,WeatherCatV1.21B27,2013-10-09 17:22:00,
2013-10-09 12:23:00,70.2,51.2,29.82,SSE,157,4.0,7.0,51,0.00,,,0.00,684,WeatherCatV1.21B27,2013-10-09 17:23:00,
2013-10-09 12:24:00,70.2,51.7,29.82,SE,144,0.0,7.0,52,0.00,,,0.00,682,WeatherCatV1.21B27,2013-10-09 17:24:00,
2013-10-09 12:27:00,70.5,51.5,29.82,South,187,6.0,14.0,51,0.00,,,0.00,687,WeatherCatV1.21B27,2013-10-09 17:27:00,
2013-10-09 12:28:00,70.4,51.4,29.82,SSW,198,11.0,16.0,51,0.00,,,0.00,687,WeatherCatV1.21B27,2013-10-09 17:28:00,
2013-10-09 12:29:00,70.4,51.4,29.82,SSW,198,2.0,16.0,51,0.00,,,0.00,687,WeatherCatV1.21B27,2013-10-09 17:29:00,
2013-10-09 12:30:00,70.5,52.0,29.82,SSE,165,4.0,5.0,52,0.00,,,0.00,689,WeatherCatV1.21B27,2013-10-09 17:30:00,
2013-10-09 12:32:00,70.9,51.9,29.82,SW,229,5.0,12.0,51,0.00,,,0.00,691,WeatherCatV1.21B27,2013-10-09 17:32:00,
2013-10-09 12:33:00,71.0,52.0,29.82,ESE,121,4.0,15.0,51,0.00,,,0.00,691,WeatherCatV1.21B27,2013-10-09 17:33:00,
2013-10-09 12:34:00,71.1,51.5,29.82,SE,136,9.0,15.0,50,0.00,,,0.00,694,WeatherCatV1.21B27,2013-10-09 17:34:00,
2013-10-09 12:35:00,71.1,51.5,29.83,SSW,211,4.0,15.0,50,0.00,,,0.00,693,WeatherCatV1.21B27,2013-10-09 17:35:00,
2013-10-09 12:37:00,71.0,50.9,29.82,SSW,200,7.0,17.0,49,0.00,,,0.00,696,WeatherCatV1.21B27,2013-10-09 17:37:00,
2013-10-09 12:38:00,70.9,50.8,29.82,SSW,206,10.0,17.0,49,0.00,,,0.00,694,WeatherCatV1.21B27,2013-10-09 17:38:00,
2013-10-09 12:39:00,70.9,51.3,29.82,SSE,159,6.0,13.0,50,0.00,,,0.00,696,WeatherCatV1.21B27,2013-10-09 17:39:00,
2013-10-09 12:40:00,70.8,51.2,29.82,SE,132,0.0,12.0,50,0.00,,,0.00,696,WeatherCatV1.21B27,2013-10-09 17:40:00,
2013-10-09 12:42:00,70.9,51.9,29.82,South,169,3.0,6.0,51,0.00,,,0.00,696,WeatherCatV1.21B27,2013-10-09 17:42:00,
2013-10-09 12:43:00,71.0,53.0,29.82,South,169,2.0,6.0,53,0.00,,,0.00,696,WeatherCatV1.21B27,2013-10-09 17:43:00,
2013-10-09 12:44:00,71.2,52.1,29.82,SSW,205,4.0,7.0,51,0.00,,,0.00,698,WeatherCatV1.21B27,2013-10-09 17:44:00,
2013-10-09 12:45:00,71.3,52.2,29.82,SE,142,3.0,15.0,51,0.00,,,0.00,700,WeatherCatV1.21B27,2013-10-09 17:45:00,
2013-10-09 12:47:00,71.6,52.0,29.82,ESE,121,4.0,11.0,50,0.00,,,0.00,701,WeatherCatV1.21B27,2013-10-09 17:47:00,
2013-10-09 12:48:00,71.6,52.0,29.82,SE,132,6.0,12.0,50,0.00,,,0.00,701,WeatherCatV1.21B27,2013-10-09 17:48:00,
2013-10-09 12:49:00,71.6,52.0,29.82,SSE,159,1.0,12.0,50,0.00,,,0.00,703,WeatherCatV1.21B27,2013-10-09 17:49:00,
2013-10-09 12:50:00,71.6,52.0,29.82,South,172,1.0,13.0,50,0.00,,,0.00,703,WeatherCatV1.21B27,2013-10-09 17:50:00,
2013-10-09 12:52:00,71.6,52.0,29.82,ESE,111,2.0,21.0,50,0.00,,,0.00,705,WeatherCatV1.21B27,2013-10-09 17:52:00,
2013-10-09 12:53:00,71.7,52.0,29.82,ESE,116,2.0,9.0,50,0.00,,,0.00,705,WeatherCatV1.21B27,2013-10-09 17:53:00,
2013-10-09 12:54:00,71.7,52.6,29.82,SSW,202,13.0,14.0,51,0.00,,,0.00,705,WeatherCatV1.21B27,2013-10-09 17:54:00,
2013-10-09 12:55:00,71.7,52.0,29.82,East,98,2.0,14.0,50,0.00,,,0.00,705,WeatherCatV1.21B27,2013-10-09 17:55:00,
2013-10-09 12:56:00,71.7,51.5,29.82,South,176,4.0,13.0,49,0.00,,,0.00,705,WeatherCatV1.21B27,2013-10-09 17:56:00,
2013-10-09 12:57:00,71.6,51.4,29.82,South,169,6.0,9.0,49,0.00,,,0.00,708,WeatherCatV1.21B27,2013-10-09 17:57:00,
2013-10-09 12:58:00,71.6,51.4,29.82,South,188,5.0,10.0,49,0.00,,,0.00,708,WeatherCatV1.21B27,2013-10-09 17:58:00,
2013-10-09 12:59:00,71.7,52.6,29.81,SW,222,1.0,10.0,51,0.00,,,0.00,708,WeatherCatV1.21B27,2013-10-09 17:59:00,
2013-10-09 13:00:00,71.9,52.8,29.81,SE,130,6.0,9.0,51,0.00,,,0.00,708,WeatherCatV1.21B27,2013-10-09 18:00:00,
2013-10-09 13:02:00,72.1,52.4,29.81,SSE,149,5.0,9.0,50,0.00,,,0.00,708,WeatherCatV1.21B27,2013-10-09 18:02:00,
2013-10-09 13:04:00,72.2,52.0,29.81,East,101,3.0,12.0,49,0.00,,,0.00,710,WeatherCatV1.21B27,2013-10-09 18:04:00,
2013-10-09 13:06:00,72.3,51.5,29.81,SSW,209,5.0,13.0,48,0.00,,,0.00,710,WeatherCatV1.21B27,2013-10-09 18:06:00,
2013-10-09 13:07:00,72.3,52.0,29.81,SE,146,3.0,13.0,49,0.00,,,0.00,710,WeatherCatV1.21B27,2013-10-09 18:07:00,
2013-10-09 13:09:00,72.3,52.6,29.81,South,174,7.0,13.0,50,0.00,,,0.00,712,WeatherCatV1.21B27,2013-10-09 18:09:00,
2013-10-09 13:11:00,72.4,52.2,29.81,SSW,195,6.0,14.0,49,0.00,,,0.00,712,WeatherCatV1.21B27,2013-10-09 18:11:00,
2013-10-09 13:12:00,72.4,52.2,29.81,South,180,6.0,14.0,49,0.00,,,0.00,712,WeatherCatV1.21B27,2013-10-09 18:12:00,
2013-10-09 13:14:00,72.4,52.2,29.81,South,170,4.0,15.0,49,0.00,,,0.00,712,WeatherCatV1.21B27,2013-10-09 18:14:00,
2013-10-09 13:15:00,72.5,52.8,29.81,SE,137,4.0,7.0,50,0.00,,,0.00,712,WeatherCatV1.21B27,2013-10-09 18:15:00,
2013-10-09 13:17:00,72.6,51.8,29.81,SSE,167,14.0,14.0,48,0.00,,,0.00,712,WeatherCatV1.21B27,2013-10-09 18:17:00,
2013-10-09 13:18:00,72.6,51.8,29.81,SSW,192,6.0,16.0,48,0.00,,,0.00,689,WeatherCatV1.21B27,2013-10-09 18:18:00,
2013-10-09 13:20:00,72.7,52.4,29.81,South,177,1.0,12.0,49,0.00,,,0.00,689,WeatherCatV1.21B27,2013-10-09 18:20:00,
2013-10-09 13:22:00,73.0,52.7,29.81,SSE,155,6.0,18.0,49,0.00,,,0.00,712,WeatherCatV1.21B27,2013-10-09 18:22:00,
2013-10-09 13:23:00,73.0,52.7,29.81,SE,132,12.0,18.0,49,0.00,,,0.00,712,WeatherCatV1.21B27,2013-10-09 18:23:00,
2013-10-09 13:25:00,73.0,52.7,29.81,SSE,167,11.0,14.0,49,0.00,,,0.00,712,WeatherCatV1.21B27,2013-10-09 18:25:00,
2013-10-09 13:26:00,72.8,52.5,29.81,SSE,168,4.0,14.0,49,0.00,,,0.00,714,WeatherCatV1.21B27,2013-10-09 18:26:00,
2013-10-09 13:28:00,72.9,52.6,29.80,SSW,210,10.0,12.0,49,0.00,,,0.00,712,WeatherCatV1.21B27,2013-10-09 18:28:00,
2013-10-09 13:30:00,72.8,52.5,29.81,South,182,4.0,15.0,49,0.00,,,0.00,712,WeatherCatV1.21B27,2013-10-09 18:30:00,
2013-10-09 13:31:00,72.9,52.0,29.80,South,182,3.0,16.0,48,0.00,,,0.00,712,WeatherCatV1.21B27,2013-10-09 18:31:00,
2013-10-09 13:33:00,73.0,52.7,29.80,South,172,10.0,15.0,49,0.00,,,0.00,712,WeatherCatV1.21B27,2013-10-09 18:33:00,
2013-10-09 13:35:00,73.0,52.1,29.80,South,191,6.0,17.0,48,0.00,,,0.00,710,WeatherCatV1.21B27,2013-10-09 18:35:00,
2013-10-09 13:37:00,73.1,53.3,29.80,South,179,3.0,12.0,50,0.00,,,0.00,708,WeatherCatV1.21B27,2013-10-09 18:37:00,
2013-10-09 13:38:00,73.3,53.0,29.80,SSW,193,3.0,12.0,49,0.00,,,0.00,708,WeatherCatV1.21B27,2013-10-09 18:38:00,
2013-10-09 13:40:00,73.5,52.6,29.80,SSW,203,9.0,15.0,48,0.00,,,0.00,708,WeatherCatV1.21B27,2013-10-09 18:40:00,
2013-10-09 13:42:00,73.5,53.7,29.80,SE,131,11.0,15.0,50,0.00,,,0.00,710,WeatherCatV1.21B27,2013-10-09 18:42:00,
2013-10-09 13:43:00,73.5,53.7,29.80,SSE,154,3.0,15.0,50,0.00,,,0.00,710,WeatherCatV1.21B27,2013-10-09 18:43:00,
2013-10-09 13:45:00,73.6,52.7,29.80,East,99,3.0,10.0,48,0.00,,,0.00,708,WeatherCatV1.21B27,2013-10-09 18:45:00,
2013-10-09 13:46:00,73.6,52.1,29.80,SW,217,14.0,17.0,47,0.00,,,0.00,708,WeatherCatV1.21B27,2013-10-09 18:46:00,
2013-10-09 13:47:00,73.6,51.5,29.80,SSW,209,11.0,19.0,46,0.00,,,0.00,705,WeatherCatV1.21B27,2013-10-09 18:47:00,
2013-10-09 13:48:00,73.6,51.5,29.80,SE,126,6.0,19.0,46,0.00,,,0.00,707,WeatherCatV1.21B27,2013-10-09 18:48:00,
2013-10-09 13:49:00,73.6,52.1,29.80,SSW,198,6.0,19.0,47,0.00,,,0.00,705,WeatherCatV1.21B27,2013-10-09 18:49:00,
2013-10-09 13:50:00,73.7,52.2,29.80,SSW,200,1.0,11.0,47,0.00,,,0.00,705,WeatherCatV1.21B27,2013-10-09 18:50:00,
2013-10-09 13:51:00,73.8,52.3,29.80,SSE,152,2.0,11.0,47,0.00,,,0.00,705,WeatherCatV1.21B27,2013-10-09 18:51:00,
2013-10-09 13:53:00,74.1,53.1,29.80,SE,136,7.0,13.0,48,0.00,,,0.00,705,WeatherCatV1.21B27,2013-10-09 18:53:00,
2013-10-09 13:54:00,74.2,52.7,29.80,SSE,155,2.0,13.0,47,0.00,,,0.00,705,WeatherCatV1.21B27,2013-10-09 18:54:00,
2013-10-09 13:55:00,74.3,52.2,29.80,SE,140,0.0,11.0,46,0.00,,,0.00,705,WeatherCatV1.21B27,2013-10-09 18:55:00,
2013-10-09 13:56:00,74.5,52.3,29.80,South,178,6.0,20.0,46,0.00,,,0.00,705,WeatherCatV1.21B27,2013-10-09 18:56:00,
2013-10-09 13:58:00,74.6,51.8,29.80,South,178,18.0,18.0,45,0.00,,,0.00,703,WeatherCatV1.21B27,2013-10-09 18:58:00,
2013-10-09 13:59:00,74.5,51.8,29.80,South,175,12.0,18.0,45,0.00,,,0.00,703,WeatherCatV1.21B27,2013-10-09 18:59:00,
2013-10-09 14:00:00,74.5,51.8,29.80,SSW,203,10.0,14.0,45,0.00,,,0.00,701,WeatherCatV1.21B27,2013-10-09 19:00:00,
2013-10-09 14:02:00,74.6,51.8,29.80,SSW,202,3.0,19.0,45,0.00,,,0.00,701,WeatherCatV1.21B27,2013-10-09 19:02:00,
2013-10-09 14:03:00,74.6,51.2,29.80,ENE,78,6.0,13.0,44,0.00,,,0.00,700,WeatherCatV1.21B27,2013-10-09 19:03:00,
2013-10-09 14:04:00,74.7,51.3,29.80,South,173,2.0,15.0,44,0.00,,,0.00,698,WeatherCatV1.21B27,2013-10-09 19:04:00,
2013-10-09 14:06:00,74.7,51.9,29.80,SSE,158,0.0,15.0,45,0.00,,,0.00,698,WeatherCatV1.21B27,2013-10-09 19:06:00,
2013-10-09 14:07:00,74.9,52.1,29.80,South,191,2.0,6.0,45,0.00,,,0.00,696,WeatherCatV1.21B27,2013-10-09 19:07:00,
2013-10-09 14:08:00,75.1,52.9,29.79,South,169,11.0,11.0,46,0.00,,,0.00,694,WeatherCatV1.21B27,2013-10-09 19:08:00,
2013-10-09 14:09:00,75.1,52.9,29.79,South,180,10.0,17.0,46,0.00,,,0.00,693,WeatherCatV1.21B27,2013-10-09 19:09:00,
2013-10-09 14:10:00,75.3,53.1,29.80,SSE,150,7.0,17.0,46,0.00,,,0.00,693,WeatherCatV1.21B27,2013-10-09 19:10:00,
2013-10-09 14:11:00,75.3,52.5,29.79,ESE,121,1.0,16.0,45,0.00,,,0.00,693,WeatherCatV1.21B27,2013-10-09 19:11:00,
2013-10-09 14:13:00,75.2,52.4,29.79,South,188,7.0,10.0,45,0.00,,,0.00,689,WeatherCatV1.21B27,2013-10-09 19:13:00,
2013-10-09 14:14:00,75.3,52.5,29.79,SSW,199,0.0,10.0,45,0.00,,,0.00,687,WeatherCatV1.21B27,2013-10-09 19:14:00,
2013-10-09 14:15:00,75.3,53.1,29.79,SW,227,3.0,6.0,46,0.00,,,0.00,687,WeatherCatV1.21B27,2013-10-09 19:15:00,
2013-10-09 14:16:00,75.5,52.7,29.79,South,173,4.0,9.0,45,0.00,,,0.00,687,WeatherCatV1.21B27,2013-10-09 19:16:00,
2013-10-09 14:18:00,75.8,52.9,29.79,ESE,116,1.0,12.0,45,0.00,,,0.00,686,WeatherCatV1.21B27,2013-10-09 19:18:00,
2013-10-09 14:19:00,75.9,53.0,29.79,SE,136,10.0,10.0,45,0.00,,,0.00,684,WeatherCatV1.21B27,2013-10-09 19:19:00,
2013-10-09 14:20:00,76.0,53.1,29.79,SE,146,13.0,17.0,45,0.00,,,0.00,682,WeatherCatV1.21B27,2013-10-09 19:20:00,
2013-10-09 14:21:00,75.8,52.3,29.79,South,179,9.0,17.0,44,0.00,,,0.00,682,WeatherCatV1.21B27,2013-10-09 19:21:00,
2013-10-09 14:23:00,75.6,52.1,29.79,SSW,209,7.0,14.0,44,0.00,,,0.00,680,WeatherCatV1.21B27,2013-10-09 19:23:00,
2013-10-09 14:24:00,75.5,52.0,29.78,SE,144,6.0,13.0,44,0.00,,,0.00,680,WeatherCatV1.21B27,2013-10-09 19:24:00,
2013-10-09 14:25:00,75.4,52.0,29.79,SSE,149,3.0,10.0,44,0.00,,,0.00,677,WeatherCatV1.21B27,2013-10-09 19:25:00,
2013-10-09 14:26:00,75.4,52.0,29.79,SSW,196,4.0,14.0,44,0.00,,,0.00,675,WeatherCatV1.21B27,2013-10-09 19:26:00,
2013-10-09 14:27:00,75.3,51.9,29.79,SSE,149,6.0,14.0,44,0.00,,,0.00,675,WeatherCatV1.21B27,2013-10-09 19:27:00,
2013-10-09 14:28:00,75.3,51.9,29.78,SE,130,2.0,14.0,44,0.00,,,0.00,671,WeatherCatV1.21B27,2013-10-09 19:28:00,
2013-10-09 14:29:00,75.4,52.0,29.78,SSE,161,6.0,14.0,44,0.00,,,0.00,671,WeatherCatV1.21B27,2013-10-09 19:29:00,
2013-10-09 14:30:00,75.5,52.0,29.78,East,101,3.0,17.0,44,0.00,,,0.00,673,WeatherCatV1.21B27,2013-10-09 19:30:00,
2013-10-09 14:31:00,75.5,52.7,29.78,SSE,159,7.0,17.0,45,0.00,,,0.00,673,WeatherCatV1.21B27,2013-10-09 19:31:00,
2013-10-09 14:32:00,75.6,52.1,29.78,ESE,115,1.0,10.0,44,0.00,,,0.00,668,WeatherCatV1.21B27,2013-10-09 19:32:00,
2013-10-09 14:33:00,75.7,52.2,29.78,SSW,203,6.0,13.0,44,0.00,,,0.00,670,WeatherCatV1.21B27,2013-10-09 19:33:00,
2013-10-09 14:34:00,75.8,52.3,29.78,SW,223,12.0,13.0,44,0.00,,,0.00,670,WeatherCatV1.21B27,2013-10-09 19:34:00,
2013-10-09 14:35:00,75.9,51.8,29.78,SE,146,5.0,14.0,43,0.00,,,0.00,670,WeatherCatV1.21B27,2013-10-09 19:35:00,
2013-10-09 14:36:00,75.9,52.4,29.78,SW,217,16.0,16.0,44,0.00,,,0.00,666,WeatherCatV1.21B27,2013-10-09 19:36:00,
2013-10-09 14:37:00,75.9,51.8,29.78,South,188,8.0,21.0,43,0.00,,,0.00,663,WeatherCatV1.21B27,2013-10-09 19:37:00,
2013-10-09 14:39:00,75.9,52.4,29.78,South,179,13.0,13.0,44,0.00,,,0.00,661,WeatherCatV1.21B27,2013-10-09 19:39:00,
2013-10-09 14:40:00,76.0,52.5,29.78,South,191,13.0,13.0,44,0.00,,,0.00,659,WeatherCatV1.21B27,2013-10-09 19:40:00,
2013-10-09 14:41:00,76.0,51.9,29.78,SE,146,5.0,13.0,43,0.00,,,0.00,657,WeatherCatV1.21B27,2013-10-09 19:41:00,
2013-10-09 14:42:00,76.1,52.6,29.78,SE,133,3.0,17.0,44,0.00,,,0.00,654,WeatherCatV1.21B27,2013-10-09 19:42:00,
2013-10-09 14:44:00,76.2,52.0,29.78,South,170,4.0,10.0,43,0.00,,,0.00,652,WeatherCatV1.21B27,2013-10-09 19:44:00,
2013-10-09 14:45:00,76.3,52.8,29.78,SW,236,3.0,6.0,44,0.00,,,0.00,652,WeatherCatV1.21B27,2013-10-09 19:45:00,
2013-10-09 14:46:00,76.4,52.2,29.78,SE,133,9.0,17.0,43,0.00,,,0.00,652,WeatherCatV1.21B27,2013-10-09 19:46:00,
2013-10-09 14:47:00,76.4,52.2,29.78,SSW,194,11.0,17.0,43,0.00,,,0.00,650,WeatherCatV1.21B27,2013-10-09 19:47:00,
2013-10-09 14:48:00,76.4,52.2,29.78,South,173,4.0,14.0,43,0.00,,,0.00,650,WeatherCatV1.21B27,2013-10-09 19:48:00,
2013-10-09 14:49:00,76.4,52.2,29.78,SSE,157,15.0,15.0,43,0.00,,,0.00,645,WeatherCatV1.21B27,2013-10-09 19:49:00,
2013-10-09 14:50:00,76.4,52.2,29.78,ESE,121,4.0,15.0,43,0.00,,,0.00,643,WeatherCatV1.21B27,2013-10-09 19:50:00,
2013-10-09 14:51:00,76.5,52.9,29.78,SSE,161,13.0,13.0,44,0.00,,,0.00,643,WeatherCatV1.21B27,2013-10-09 19:51:00,
2013-10-09 14:53:00,76.6,53.0,29.78,SE,125,10.0,13.0,44,0.00,,,0.00,640,WeatherCatV1.21B27,2013-10-09 19:53:00,
2013-10-09 14:54:00,76.7,52.5,29.78,South,174,0.0,14.0,43,0.00,,,0.00,640,WeatherCatV1.21B27,2013-10-09 19:54:00,
2013-10-09 14:55:00,76.8,52.6,29.78,South,169,5.0,14.0,43,0.00,,,0.00,638,WeatherCatV1.21B27,2013-10-09 19:55:00,
2013-10-09 14:56:00,76.8,52.6,29.78,SSW,209,2.0,15.0,43,0.00,,,0.00,636,WeatherCatV1.21B27,2013-10-09 19:56:00,
2013-10-09 14:57:00,76.9,52.0,29.77,SSW,206,6.0,16.0,42,0.00,,,0.00,633,WeatherCatV1.21B27,2013-10-09 19:57:00,
2013-10-09 14:58:00,76.9,52.7,29.78,South,191,6.0,16.0,43,0.00,,,0.00,631,WeatherCatV1.21B27,2013-10-09 19:58:00,
2013-10-09 14:59:00,76.8,51.3,29.78,SW,218,11.0,17.0,41,0.00,,,0.00,629,WeatherCatV1.21B27,2013-10-09 19:59:00,
2013-10-09 15:00:00,76.8,52.6,29.78,SE,130,5.0,17.0,43,0.00,,,0.00,629,WeatherCatV1.21B27,2013-10-09 20:00:00,
2013-10-09 15:01:00,76.8,52.6,29.78,ESE,122,5.0,13.0,43,0.00,,,0.00,626,WeatherCatV1.21B27,2013-10-09 20:01:00,
2013-10-09 15:03:00,76.9,52.7,29.78,SSE,153,3.0,16.0,43,0.00,,,0.00,624,WeatherCatV1.21B27,2013-10-09 20:03:00,
2013-10-09 15:04:00,77.0,53.4,29.77,SSE,148,0.0,5.0,44,0.00,,,0.00,621,WeatherCatV1.21B27,2013-10-09 20:04:00,
2013-10-09 15:05:00,77.0,53.4,29.78,SSE,149,1.0,3.0,44,0.00,,,0.00,617,WeatherCatV1.21B27,2013-10-09 20:05:00,
2013-10-09 15:06:00,77.2,54.2,29.77,ESE,118,1.0,7.0,45,0.00,,,0.00,617,WeatherCatV1.21B27,2013-10-09 20:06:00,
2013-10-09 15:08:00,77.4,52.5,29.77,South,184,9.0,13.0,42,0.00,,,0.00,615,WeatherCatV1.21B27,2013-10-09 20:08:00,
2013-10-09 15:09:00,77.4,52.5,29.78,SE,128,1.0,13.0,42,0.00,,,0.00,615,WeatherCatV1.21B27,2013-10-09 20:09:00,
2013-10-09 15:10:00,77.4,52.5,29.77,SE,135,6.0,11.0,42,0.00,,,0.00,613,WeatherCatV1.21B27,2013-10-09 20:10:00,
2013-10-09 15:11:00,77.5,53.2,29.78,WSW,238,10.0,12.0,43,0.00,,,0.00,610,WeatherCatV1.21B27,2013-10-09 20:11:00,
2013-10-09 15:13:00,77.5,52.6,29.77,ESE,105,17.0,17.0,42,0.00,,,0.00,605,WeatherCatV1.21B27,2013-10-09 20:13:00,
2013-10-09 15:14:00,77.5,52.6,29.77,South,169,5.0,17.0,42,0.00,,,0.00,605,WeatherCatV1.21B27,2013-10-09 20:14:00,
2013-10-09 15:15:00,77.5,51.9,29.77,SSE,156,6.0,17.0,41,0.00,,,0.00,603,WeatherCatV1.21B27,2013-10-09 20:15:00,
2013-10-09 15:16:00,77.4,51.8,29.77,SE,132,3.0,15.0,41,0.00,,,0.00,599,WeatherCatV1.21B27,2013-10-09 20:16:00,
2013-10-09 15:18:00,77.3,52.4,29.78,SSW,200,3.0,12.0,42,0.00,,,0.00,596,WeatherCatV1.21B27,2013-10-09 20:18:00,
2013-10-09 15:19:00,77.3,53.0,29.78,South,184,5.0,12.0,43,0.00,,,0.00,596,WeatherCatV1.21B27,2013-10-09 20:19:00,
2013-10-09 15:20:00,77.3,51.7,29.77,ESE,117,1.0,12.0,41,0.00,,,0.00,594,WeatherCatV1.21B27,2013-10-09 20:20:00,
2013-10-09 15:22:00,77.5,53.2,29.77,SW,223,7.0,10.0,43,0.00,,,0.00,589,WeatherCatV1.21B27,2013-10-09 20:22:00,
2013-10-09 15:23:00,77.5,51.9,29.78,SSE,148,8.0,16.0,41,0.00,,,0.00,587,WeatherCatV1.21B27,2013-10-09 20:23:00,
2013-10-09 15:24:00,77.4,52.5,29.77,SE,128,1.0,12.0,42,0.00,,,0.00,584,WeatherCatV1.21B27,2013-10-09 20:24:00,
2013-10-09 15:25:00,77.4,52.5,29.77,SE,131,7.0,12.0,42,0.00,,,0.00,584,WeatherCatV1.21B27,2013-10-09 20:25:00,
2013-10-09 15:27:00,77.2,51.7,29.77,ESE,110,6.0,20.0,41,0.00,,,0.00,580,WeatherCatV1.21B27,2013-10-09 20:27:00,
2013-10-09 15:28:00,77.2,52.3,29.77,SSW,207,10.0,15.0,42,0.00,,,0.00,575,WeatherCatV1.21B27,2013-10-09 20:28:00,
2013-10-09 15:30:00,77.3,52.4,29.77,SE,137,9.0,19.0,42,0.00,,,0.00,573,WeatherCatV1.21B27,2013-10-09 20:30:00,
2013-10-09 15:32:00,77.5,52.6,29.77,SE,144,12.0,14.0,42,0.00,,,0.00,568,WeatherCatV1.21B27,2013-10-09 20:32:00,
2013-10-09 15:34:00,77.6,52.0,29.77,SW,221,7.0,14.0,41,0.00,,,0.00,564,WeatherCatV1.21B27,2013-10-09 20:34:00,
2013-10-09 15:35:00,77.6,52.0,29.77,SE,140,14.0,14.0,41,0.00,,,0.00,561,WeatherCatV1.21B27,2013-10-09 20:35:00,
2013-10-09 15:37:00,77.8,52.8,29.77,SE,145,11.0,17.0,42,0.00,,,0.00,557,WeatherCatV1.21B27,2013-10-09 20:37:00,
2013-10-09 15:39:00,77.8,52.2,29.77,SSE,167,3.0,14.0,41,0.00,,,0.00,550,WeatherCatV1.21B27,2013-10-09 20:39:00,
2013-10-09 15:40:00,77.9,52.3,29.77,SSW,196,6.0,15.0,41,0.00,,,0.00,548,WeatherCatV1.21B27,2013-10-09 20:40:00,
2013-10-09 15:42:00,77.7,51.4,29.77,SW,223,7.0,16.0,40,0.00,,,0.00,541,WeatherCatV1.21B27,2013-10-09 20:42:00,
2013-10-09 15:44:00,77.8,52.2,29.77,SSE,148,15.0,15.0,41,0.00,,,0.00,540,WeatherCatV1.21B27,2013-10-09 20:44:00,
2013-10-09 15:45:00,77.8,51.5,29.77,SSE,165,6.0,15.0,40,0.00,,,0.00,536,WeatherCatV1.21B27,2013-10-09 20:45:00,
2013-10-09 15:46:00,77.8,52.2,29.77,South,171,20.0,20.0,41,0.00,,,0.00,536,WeatherCatV1.21B27,2013-10-09 20:46:00,
2013-10-09 15:47:00,77.7,51.4,29.77,SE,139,4.0,20.0,40,0.00,,,0.00,531,WeatherCatV1.21B27,2013-10-09 20:47:00,
2013-10-09 15:49:00,77.7,52.1,29.77,South,180,10.0,12.0,41,0.00,,,0.00,529,WeatherCatV1.21B27,2013-10-09 20:49:00,
2013-10-09 15:50:00,77.7,52.1,29.77,South,176,6.0,10.0,41,0.00,,,0.00,527,WeatherCatV1.21B27,2013-10-09 20:50:00,
2013-10-09 15:51:00,77.7,52.1,29.77,SSW,192,8.0,11.0,41,0.00,,,0.00,524,WeatherCatV1.21B27,2013-10-09 20:51:00,
2013-10-09 15:53:00,77.8,52.2,29.77,SE,130,11.0,19.0,41,0.00,,,0.00,520,WeatherCatV1.21B27,2013-10-09 20:53:00,
2013-10-09 15:54:00,77.8,51.5,29.77,South,169,7.0,19.0,40,0.00,,,0.00,517,WeatherCatV1.21B27,2013-10-09 20:54:00,
2013-10-09 15:55:00,77.8,52.2,29.77,South,169,3.0,15.0,41,0.00,,,0.00,513,WeatherCatV1.21B27,2013-10-09 20:55:00,
2013-10-09 15:56:00,77.9,52.3,29.77,SSW,196,19.0,19.0,41,0.00,,,0.00,513,WeatherCatV1.21B27,2013-10-09 20:56:00,
2013-10-09 15:57:00,78.0,52.4,29.76,South,184,8.0,19.0,41,0.00,,,0.00,512,WeatherCatV1.21B27,2013-10-09 20:57:00,
2013-10-09 15:58:00,78.1,51.8,29.77,SE,137,4.0,12.0,40,0.00,,,0.00,510,WeatherCatV1.21B27,2013-10-09 20:58:00,
2013-10-09 15:59:00,78.2,51.9,29.77,South,188,3.0,11.0,40,0.00,,,0.00,506,WeatherCatV1.21B27,2013-10-09 20:59:00,
2013-10-09 16:00:00,78.2,51.9,29.77,ESE,109,2.0,11.0,40,0.00,,,0.00,501,WeatherCatV1.21B27,2013-10-09 21:00:00,
2013-10-09 16:01:00,78.2,52.5,29.77,ESE,109,0.0,11.0,41,0.00,,,0.00,501,WeatherCatV1.21B27,2013-10-09 21:01:00,
2013-10-09 16:02:00,78.3,52.6,29.77,ESE,110,1.0,5.0,41,0.00,,,0.00,499,WeatherCatV1.21B27,2013-10-09 21:02:00,
2013-10-09 16:03:00,78.4,52.7,29.76,SSE,156,4.0,13.0,41,0.00,,,0.00,494,WeatherCatV1.21B27,2013-10-09 21:03:00,
2013-10-09 16:04:00,78.5,52.8,29.76,SSW,207,2.0,13.0,41,0.00,,,0.00,492,WeatherCatV1.21B27,2013-10-09 21:04:00,
2013-10-09 16:05:00,78.7,53.0,29.77,SE,125,6.0,14.0,41,0.00,,,0.00,490,WeatherCatV1.21B27,2013-10-09 21:05:00,
2013-10-09 16:06:00,78.7,53.0,29.77,SSW,198,19.0,19.0,41,0.00,,,0.00,487,WeatherCatV1.21B27,2013-10-09 21:06:00,
2013-10-09 16:07:00,78.7,52.3,29.77,SSE,165,4.0,19.0,40,0.00,,,0.00,483,WeatherCatV1.21B27,2013-10-09 21:07:00,
2013-10-09 16:08:00,78.7,52.3,29.77,SSE,153,1.0,10.0,40,0.00,,,0.00,483,WeatherCatV1.21B27,2013-10-09 21:08:00,
2013-10-09 16:09:00,78.7,53.0,29.77,South,169,6.0,15.0,41,0.00,,,0.00,480,WeatherCatV1.21B27,2013-10-09 21:09:00,
2013-10-09 16:11:00,78.7,53.0,29.77,South,186,4.0,13.0,41,0.00,,,0.00,475,WeatherCatV1.21B27,2013-10-09 21:11:00,
2013-10-09 16:12:00,78.7,51.6,29.77,SSE,147,10.0,19.0,39,0.00,,,0.00,471,WeatherCatV1.21B27,2013-10-09 21:12:00,
2013-10-09 16:14:00,78.7,51.6,29.76,SSE,167,1.0,14.0,39,0.00,,,0.00,466,WeatherCatV1.21B27,2013-10-09 21:14:00,
2013-10-09 16:16:00,78.7,52.3,29.77,SSW,197,10.0,16.0,40,0.00,,,0.00,461,WeatherCatV1.21B27,2013-10-09 21:16:00,
2013-10-09 16:17:00,78.7,51.6,29.77,SSE,150,1.0,15.0,39,0.00,,,0.00,455,WeatherCatV1.21B27,2013-10-09 21:17:00,
2013-10-09 16:19:00,78.7,53.0,29.77,SE,135,5.0,16.0,41,0.00,,,0.00,450,WeatherCatV1.21B27,2013-10-09 21:19:00,
2013-10-09 16:21:00,78.7,52.3,29.77,SE,142,4.0,16.0,40,0.00,,,0.00,445,WeatherCatV1.21B27,2013-10-09 21:21:00,
2013-10-09 16:22:00,78.7,52.3,29.77,SE,128,11.0,12.0,40,0.00,,,0.00,434,WeatherCatV1.21B27,2013-10-09 21:22:00,
2013-10-09 16:23:00,78.7,51.6,29.77,South,176,2.0,18.0,39,0.00,,,0.00,443,WeatherCatV1.21B27,2013-10-09 21:23:00,
2013-10-09 16:24:00,78.7,52.3,29.77,SSE,150,5.0,18.0,40,0.00,,,0.00,441,WeatherCatV1.21B27,2013-10-09 21:24:00,
2013-10-09 16:25:00,78.7,52.3,29.77,SSE,155,5.0,9.0,40,0.00,,,0.00,425,WeatherCatV1.21B27,2013-10-09 21:25:00,
2013-10-09 16:26:00,78.7,51.6,29.77,SSW,192,4.0,16.0,39,0.00,,,0.00,434,WeatherCatV1.21B27,2013-10-09 21:26:00,
2013-10-09 16:27:00,78.7,51.6,29.77,SSW,198,16.0,16.0,39,0.00,,,0.00,434,WeatherCatV1.21B27,2013-10-09 21:27:00,
2013-10-09 16:28:00,78.7,51.6,29.77,SSE,150,14.0,16.0,39,0.00,,,0.00,429,WeatherCatV1.21B27,2013-10-09 21:28:00,
2013-10-09 16:30:00,78.5,52.2,29.77,SSW,209,12.0,19.0,40,0.00,,,0.00,424,WeatherCatV1.21B27,2013-10-09 21:30:00,
2013-10-09 16:31:00,78.5,52.2,29.77,SE,146,5.0,19.0,40,0.00,,,0.00,418,WeatherCatV1.21B27,2013-10-09 21:31:00,
2013-10-09 16:32:00,78.5,52.2,29.77,SSW,213,7.0,7.0,40,0.00,,,0.00,415,WeatherCatV1.21B27,2013-10-09 21:32:00,
2013-10-09 16:33:00,78.7,52.3,29.77,SSE,157,10.0,17.0,40,0.00,,,0.00,411,WeatherCatV1.21B27,2013-10-09 21:33:00,
2013-10-09 16:35:00,78.7,52.3,29.77,SSE,167,11.0,11.0,40,0.00,,,0.00,404,WeatherCatV1.21B27,2013-10-09 21:35:00,
2013-10-09 16:36:00,78.7,51.6,29.77,South,181,1.0,12.0,39,0.00,,,0.00,404,WeatherCatV1.21B27,2013-10-09 21:36:00,
2013-10-09 16:37:00,78.7,52.3,29.76,SE,126,6.0,12.0,40,0.00,,,0.00,401,WeatherCatV1.21B27,2013-10-09 21:37:00,
2013-10-09 16:39:00,78.7,52.3,29.77,SSE,159,3.0,16.0,40,0.00,,,0.00,396,WeatherCatV1.21B27,2013-10-09 21:39:00,
2013-10-09 16:41:00,78.7,51.6,29.77,SSE,154,10.0,12.0,39,0.00,,,0.00,390,WeatherCatV1.21B27,2013-10-09 21:41:00,
2013-10-09 16:42:00,78.7,52.3,29.77,SE,146,5.0,11.0,40,0.00,,,0.00,387,WeatherCatV1.21B27,2013-10-09 21:42:00,
2013-10-09 16:43:00,78.7,52.3,29.77,SSE,161,2.0,8.0,40,0.00,,,0.00,385,WeatherCatV1.21B27,2013-10-09 21:43:00,
2013-10-09 16:44:00,78.7,51.6,29.77,SSW,198,9.0,14.0,39,0.00,,,0.00,380,WeatherCatV1.21B27,2013-10-09 21:44:00,
2013-10-09 16:46:00,78.7,51.6,29.77,SSE,153,7.0,14.0,39,0.00,,,0.00,373,WeatherCatV1.21B27,2013-10-09 21:46:00,
2013-10-09 16:47:00,78.7,51.6,29.77,SSE,165,9.0,13.0,39,0.00,,,0.00,371,WeatherCatV1.21B27,2013-10-09 21:47:00,
2013-10-09 16:48:00,78.7,51.6,29.77,ESE,123,6.0,13.0,39,0.00,,,0.00,371,WeatherCatV1.21B27,2013-10-09 21:48:00,
2013-10-09 16:49:00,78.6,50.8,29.77,SSE,168,12.0,21.0,38,0.00,,,0.00,367,WeatherCatV1.21B27,2013-10-09 21:49:00,
2013-10-09 16:52:00,78.6,51.5,29.77,SSE,165,4.0,12.0,39,0.00,,,0.00,359,WeatherCatV1.21B27,2013-10-09 21:52:00,
2013-10-09 16:53:00,78.7,51.6,29.77,SSE,168,3.0,9.0,39,0.00,,,0.00,355,WeatherCatV1.21B27,2013-10-09 21:53:00,
2013-10-09 16:54:00,78.7,51.6,29.77,SE,127,9.0,12.0,39,0.00,,,0.00,352,WeatherCatV1.21B27,2013-10-09 21:54:00,
2013-10-09 16:55:00,78.7,51.6,29.77,SE,139,2.0,12.0,39,0.00,,,0.00,350,WeatherCatV1.21B27,2013-10-09 21:55:00,
2013-10-09 16:57:00,78.7,51.6,29.77,SE,143,4.0,15.0,39,0.00,,,0.00,345,WeatherCatV1.21B27,2013-10-09 21:57:00,
2013-10-09 16:58:00,78.7,50.9,29.77,SSE,148,6.0,16.0,38,0.00,,,0.00,341,WeatherCatV1.21B27,2013-10-09 21:58:00,
2013-10-09 16:59:00,78.7,51.6,29.77,SE,126,8.0,16.0,39,0.00,,,0.00,336,WeatherCatV1.21B27,2013-10-09 21:59:00,
2013-10-09 17:00:00,78.6,50.8,29.77,SW,215,8.0,14.0,38,0.00,,,0.00,336,WeatherCatV1.21B27,2013-10-09 22:00:00,
2013-10-09 17:02:00,78.7,51.6,29.77,SSE,163,4.0,15.0,39,0.00,,,0.00,327,WeatherCatV1.21B27,2013-10-09 22:02:00,
2013-10-09 17:03:00,78.7,51.6,29.77,SW,215,4.0,10.0,39,0.00,,,0.00,323,WeatherCatV1.21B27,2013-10-09 22:03:00,
2013-10-09 17:04:00,78.7,51.6,29.77,SSE,161,5.0,7.0,39,0.00,,,0.00,322,WeatherCatV1.21B27,2013-10-09 22:04:00,
2013-10-09 17:05:00,78.7,51.6,29.77,SSE,163,7.0,16.0,39,0.00,,,0.00,318,WeatherCatV1.21B27,2013-10-09 22:05:00,
2013-10-09 17:07:00,78.7,50.9,29.77,SSW,203,13.0,21.0,38,0.00,,,0.00,311,WeatherCatV1.21B27,2013-10-09 22:07:00,
2013-10-09 17:09:00,78.7,50.9,29.77,SE,141,14.0,21.0,38,0.00,,,0.00,308,WeatherCatV1.21B27,2013-10-09 22:09:00,
2013-10-09 17:10:00,78.7,50.9,29.77,SSW,198,12.0,13.0,38,0.00,,,0.00,299,WeatherCatV1.21B27,2013-10-09 22:10:00,
2013-10-09 17:12:00,78.7,50.9,29.77,SSE,161,7.0,13.0,38,0.00,,,0.00,294,WeatherCatV1.21B27,2013-10-09 22:12:00,
2013-10-09 17:13:00,78.7,50.9,29.77,SSE,153,4.0,17.0,38,0.00,,,0.00,292,WeatherCatV1.21B27,2013-10-09 22:13:00,
2013-10-09 17:14:00,78.7,50.9,29.77,SE,145,3.0,17.0,38,0.00,,,0.00,292,WeatherCatV1.21B27,2013-10-09 22:14:00,
2013-10-09 17:15:00,78.7,50.9,29.77,SW,225,13.0,16.0,38,0.00,,,0.00,283,WeatherCatV1.21B27,2013-10-09 22:15:00,
2013-10-09 17:16:00,78.7,50.9,29.77,SSE,148,4.0,13.0,38,0.00,,,0.00,283,WeatherCatV1.21B27,2013-10-09 22:16:00,
2013-10-09 17:17:00,78.6,50.8,29.77,SE,134,4.0,13.0,38,0.00,,,0.00,281,WeatherCatV1.21B27,2013-10-09 22:17:00,
2013-10-09 17:19:00,78.7,51.6,29.77,South,187,2.0,13.0,39,0.00,,,0.00,278,WeatherCatV1.21B27,2013-10-09 22:19:00,
2013-10-09 17:20:00,78.7,50.9,29.77,SSE,157,6.0,11.0,38,0.00,,,0.00,274,WeatherCatV1.21B27,2013-10-09 22:20:00,
2013-10-09 17:21:00,78.7,50.9,29.77,SE,140,10.0,16.0,38,0.00,,,0.00,267,WeatherCatV1.21B27,2013-10-09 22:21:00,
2013-10-09 17:22:00,78.7,50.9,29.77,SSE,158,6.0,16.0,38,0.00,,,0.00,264,WeatherCatV1.21B27,2013-10-09 22:22:00,
2013-10-09 17:23:00,78.7,50.9,29.77,East,87,2.0,16.0,38,0.00,,,0.00,260,WeatherCatV1.21B27,2013-10-09 22:23:00,
2013-10-09 17:24:00,78.7,51.6,29.77,SSE,165,7.0,10.0,39,0.00,,,0.00,257,WeatherCatV1.21B27,2013-10-09 22:24:00,
2013-10-09 17:25:00,78.7,50.9,29.77,SSW,200,6.0,16.0,38,0.00,,,0.00,255,WeatherCatV1.21B27,2013-10-09 22:25:00,
2013-10-09 17:26:00,78.7,50.9,29.77,SSE,160,0.0,16.0,38,0.00,,,0.00,248,WeatherCatV1.21B27,2013-10-09 22:26:00,
2013-10-09 17:27:00,78.7,51.6,29.76,SSE,162,6.0,14.0,39,0.00,,,0.00,248,WeatherCatV1.21B27,2013-10-09 22:27:00,
2013-10-09 17:28:00,78.6,50.8,29.77,ESE,105,4.0,10.0,38,0.00,,,0.00,241,WeatherCatV1.21B27,2013-10-09 22:28:00,
2013-10-09 17:29:00,78.6,50.8,29.77,SSE,155,13.0,14.0,38,0.00,,,0.00,241,WeatherCatV1.21B27,2013-10-09 22:29:00,
2013-10-09 17:30:00,78.6,50.8,29.77,South,183,5.0,14.0,38,0.00,,,0.00,237,WeatherCatV1.21B27,2013-10-09 22:30:00,
2013-10-09 17:31:00,78.5,50.8,29.77,SE,138,4.0,13.0,38,0.00,,,0.00,232,WeatherCatV1.21B27,2013-10-09 22:31:00,
2013-10-09 17:32:00,78.5,50.8,29.77,SW,226,12.0,12.0,38,0.00,,,0.00,227,WeatherCatV1.21B27,2013-10-09 22:32:00,
2013-10-09 17:33:00,78.5,50.8,29.77,SSE,155,6.0,12.0,38,0.00,,,0.00,223,WeatherCatV1.21B27,2013-10-09 22:33:00,
2013-10-09 17:34:00,78.5,51.5,29.77,ESE,122,7.0,12.0,39,0.00,,,0.00,216,WeatherCatV1.21B27,2013-10-09 22:34:00,
2013-10-09 17:35:00,78.5,51.5,29.77,ESE,122,0.0,12.0,39,0.00,,,0.00,216,WeatherCatV1.21B27,2013-10-09 22:35:00,
2013-10-09 17:36:00,78.5,51.5,29.77,SSW,196,5.0,14.0,39,0.00,,,0.00,213,WeatherCatV1.21B27,2013-10-09 22:36:00,
2013-10-09 17:37:00,78.5,51.5,29.77,South,184,1.0,14.0,39,0.00,,,0.00,209,WeatherCatV1.21B27,2013-10-09 22:37:00,
2013-10-09 17:38:00,78.5,51.5,29.77,SE,132,6.0,6.0,39,0.00,,,0.00,200,WeatherCatV1.21B27,2013-10-09 22:38:00,
2013-10-09 17:40:00,78.4,51.4,29.77,SSE,163,5.0,12.0,39,0.00,,,0.00,193,WeatherCatV1.21B27,2013-10-09 22:40:00,
2013-10-09 17:41:00,78.4,51.4,29.77,ESE,118,4.0,12.0,39,0.00,,,0.00,193,WeatherCatV1.21B27,2013-10-09 22:41:00,
2013-10-09 17:43:00,78.3,51.3,29.77,SSE,149,4.0,14.0,39,0.00,,,0.00,190,WeatherCatV1.21B27,2013-10-09 22:43:00,
2013-10-09 17:45:00,78.2,50.5,29.77,SSE,161,3.0,13.0,38,0.00,,,0.00,183,WeatherCatV1.21B27,2013-10-09 22:45:00,
2013-10-09 17:46:00,78.0,50.3,29.77,South,178,3.0,11.0,38,0.00,,,0.00,174,WeatherCatV1.21B27,2013-10-09 22:46:00,
2013-10-09 17:48:00,78.0,50.3,29.77,SSE,167,4.0,15.0,38,0.00,,,0.00,171,WeatherCatV1.21B27,2013-10-09 22:48:00,
2013-10-09 17:50:00,78.0,51.0,29.77,SE,134,2.0,7.0,39,0.00,,,0.00,160,WeatherCatV1.21B27,2013-10-09 22:50:00,
2013-10-09 17:52:00,77.9,50.2,29.77,ESE,123,4.0,15.0,38,0.00,,,0.00,153,WeatherCatV1.21B27,2013-10-09 22:52:00,
2013-10-09 17:53:00,77.8,50.1,29.77,South,187,2.0,15.0,38,0.00,,,0.00,149,WeatherCatV1.21B27,2013-10-09 22:53:00,
2013-10-09 17:54:00,77.8,50.1,29.77,SSW,196,6.0,13.0,38,0.00,,,0.00,146,WeatherCatV1.21B27,2013-10-09 22:54:00,
2013-10-09 17:55:00,77.7,50.8,29.77,SSE,153,4.0,13.0,39,0.00,,,0.00,142,WeatherCatV1.21B27,2013-10-09 22:55:00,
2013-10-09 17:57:00,77.6,50.7,29.77,SE,146,14.0,14.0,39,0.00,,,0.00,137,WeatherCatV1.21B27,2013-10-09 22:57:00,
2013-10-09 17:58:00,77.5,50.6,29.77,SE,133,2.0,14.0,39,0.00,,,0.00,134,WeatherCatV1.21B27,2013-10-09 22:58:00,
2013-10-09 17:59:00,77.5,49.9,29.77,South,169,5.0,14.0,38,0.00,,,0.00,128,WeatherCatV1.21B27,2013-10-09 22:59:00,
2013-10-09 18:00:00,77.4,50.5,29.77,SE,144,3.0,12.0,39,0.00,,,0.00,123,WeatherCatV1.21B27,2013-10-09 23:00:00,
2013-10-09 18:01:00,77.4,50.5,29.77,SE,134,3.0,12.0,39,0.00,,,0.00,123,WeatherCatV1.21B27,2013-10-09 23:01:00,
2013-10-09 18:02:00,77.3,50.4,29.77,SE,134,2.0,13.0,39,0.00,,,0.00,116,WeatherCatV1.21B27,2013-10-09 23:02:00,
2013-10-09 18:03:00,77.3,50.4,29.77,SSE,157,9.0,13.0,39,0.00,,,0.00,113,WeatherCatV1.21B27,2013-10-09 23:03:00,
2013-10-09 18:04:00,77.2,50.3,29.77,SSE,160,0.0,12.0,39,0.00,,,0.00,109,WeatherCatV1.21B27,2013-10-09 23:04:00,
2013-10-09 18:05:00,77.1,50.2,29.77,SE,141,15.0,15.0,39,0.00,,,0.00,107,WeatherCatV1.21B27,2013-10-09 23:05:00,
2013-10-09 18:06:00,77.1,50.2,29.77,SE,146,3.0,15.0,39,0.00,,,0.00,104,WeatherCatV1.21B27,2013-10-09 23:06:00,
2013-10-09 18:07:00,77.1,50.2,29.77,SSW,198,2.0,15.0,39,0.00,,,0.00,100,WeatherCatV1.21B27,2013-10-09 23:07:00,
2013-10-09 18:08:00,77.1,50.2,29.77,South,186,3.0,5.0,39,0.00,,,0.00,97,WeatherCatV1.21B27,2013-10-09 23:08:00,
2013-10-09 18:09:00,77.0,50.1,29.77,East,96,4.0,12.0,39,0.00,,,0.00,91,WeatherCatV1.21B27,2013-10-09 23:09:00,
2013-10-09 18:10:00,77.0,50.1,29.77,SE,134,10.0,12.0,39,0.00,,,0.00,91,WeatherCatV1.21B27,2013-10-09 23:10:00,
2013-10-09 18:11:00,77.0,50.1,29.77,SSE,165,0.0,11.0,39,0.00,,,0.00,88,WeatherCatV1.21B27,2013-10-09 23:11:00,
2013-10-09 18:13:00,76.9,50.0,29.77,SE,125,3.0,14.0,39,0.00,,,0.00,83,WeatherCatV1.21B27,2013-10-09 23:13:00,
2013-10-09 18:14:00,76.8,50.0,29.77,SSE,161,9.0,13.0,39,0.00,,,0.00,77,WeatherCatV1.21B27,2013-10-09 23:14:00,
2013-10-09 18:16:00,76.7,49.9,29.77,SSE,159,3.0,15.0,39,0.00,,,0.00,72,WeatherCatV1.21B27,2013-10-09 23:16:00,
2013-10-09 18:18:00,76.6,49.8,29.77,SE,128,4.0,13.0,39,0.00,,,0.00,69,WeatherCatV1.21B27,2013-10-09 23:18:00,
2013-10-09 18:20:00,76.5,50.4,29.77,ESE,115,4.0,10.0,40,0.00,,,0.00,63,WeatherCatV1.21B27,2013-10-09 23:20:00,
2013-10-09 18:21:00,76.4,50.3,29.77,SE,125,10.0,12.0,40,0.00,,,0.00,58,WeatherCatV1.21B27,2013-10-09 23:21:00,
2013-10-09 18:22:00,76.3,50.2,29.77,South,175,2.0,12.0,40,0.00,,,0.00,56,WeatherCatV1.21B27,2013-10-09 23:22:00,
2013-10-09 18:23:00,76.2,50.1,29.77,ESE,123,2.0,8.0,40,0.00,,,0.00,51,WeatherCatV1.21B27,2013-10-09 23:23:00,
2013-10-09 18:24:00,76.1,50.0,29.77,ESE,123,1.0,8.0,40,0.00,,,0.00,51,WeatherCatV1.21B27,2013-10-09 23:24:00,
2013-10-09 18:25:00,76.1,50.0,29.77,SE,139,3.0,9.0,40,0.00,,,0.00,49,WeatherCatV1.21B27,2013-10-09 23:25:00,
2013-10-09 18:26:00,76.0,50.6,29.77,South,173,9.0,14.0,41,0.00,,,0.00,46,WeatherCatV1.21B27,2013-10-09 23:26:00,
2013-10-09 18:27:00,76.0,50.6,29.77,South,171,6.0,14.0,41,0.00,,,0.00,46,WeatherCatV1.21B27,2013-10-09 23:27:00,
2013-10-09 18:28:00,75.9,50.5,29.77,SE,144,5.0,14.0,41,0.00,,,0.00,42,WeatherCatV1.21B27,2013-10-09 23:28:00,
2013-10-09 18:29:00,75.8,50.4,29.77,SE,137,7.0,9.0,41,0.00,,,0.00,40,WeatherCatV1.21B27,2013-10-09 23:29:00,
2013-10-09 18:30:00,75.7,50.3,29.77,South,173,3.0,7.0,41,0.00,,,0.00,33,WeatherCatV1.21B27,2013-10-09 23:30:00,
2013-10-09 18:31:00,75.5,50.1,29.77,ESE,106,1.0,7.0,41,0.00,,,0.00,32,WeatherCatV1.21B27,2013-10-09 23:31:00,
2013-10-09 18:32:00,75.5,50.1,29.77,ESE,109,2.0,7.0,41,0.00,,,0.00,32,WeatherCatV1.21B27,2013-10-09 23:32:00,
2013-10-09 18:33:00,75.4,50.0,29.77,SSE,149,4.0,9.0,41,0.00,,,0.00,26,WeatherCatV1.21B27,2013-10-09 23:33:00,
2013-10-09 18:34:00,75.3,50.0,29.77,SSE,157,3.0,9.0,41,0.00,,,0.00,25,WeatherCatV1.21B27,2013-10-09 23:34:00,
2013-10-09 18:35:00,75.2,49.9,29.77,SSE,149,4.0,6.0,41,0.00,,,0.00,25,WeatherCatV1.21B27,2013-10-09 23:35:00,
2013-10-09 18:37:00,75.1,49.8,29.77,SE,130,5.0,11.0,41,0.00,,,0.00,23,WeatherCatV1.21B27,2013-10-09 23:37:00,
2013-10-09 18:38:00,74.9,49.6,29.77,SSE,153,6.0,11.0,41,0.00,,,0.00,23,WeatherCatV1.21B27,2013-10-09 23:38:00,
2013-10-09 18:39:00,74.9,49.6,29.77,ESE,106,2.0,9.0,41,0.00,,,0.00,21,WeatherCatV1.21B27,2013-10-09 23:39:00,
2013-10-09 18:40:00,74.8,50.2,29.77,South,173,4.0,11.0,42,0.00,,,0.00,21,WeatherCatV1.21B27,2013-10-09 23:40:00,
2013-10-09 18:42:00,74.7,50.1,29.77,SE,128,1.0,10.0,42,0.00,,,0.00,19,WeatherCatV1.21B27,2013-10-09 23:42:00,
2013-10-09 18:43:00,74.6,50.0,29.77,SE,133,4.0,9.0,42,0.00,,,0.00,18,WeatherCatV1.21B27,2013-10-09 23:43:00,
2013-10-09 18:44:00,74.5,49.9,29.77,SE,144,0.0,9.0,42,0.00,,,0.00,18,WeatherCatV1.21B27,2013-10-09 23:44:00,
2013-10-09 18:45:00,74.4,49.8,29.77,SE,144,3.0,7.0,42,0.00,,,0.00,18,WeatherCatV1.21B27,2013-10-09 23:45:00,
2013-10-09 18:47:00,74.3,49.7,29.77,SE,141,3.0,4.0,42,0.00,,,0.00,16,WeatherCatV1.21B27,2013-10-09 23:47:00,
2013-10-09 18:48:00,74.3,49.7,29.77,SE,124,3.0,10.0,42,0.00,,,0.00,14,WeatherCatV1.21B27,2013-10-09 23:48:00,
2013-10-09 18:49:00,74.2,49.6,29.77,SSE,163,5.0,10.0,42,0.00,,,0.00,14,WeatherCatV1.21B27,2013-10-09 23:49:00,
2013-10-09 18:50:00,74.2,49.6,29.77,SE,142,0.0,5.0,42,0.00,,,0.00,14,WeatherCatV1.21B27,2013-10-09 23:50:00,
2013-10-09 18:51:00,74.1,50.2,29.77,SE,136,5.0,5.0,43,0.00,,,0.00,14,WeatherCatV1.21B27,2013-10-09 23:51:00,
2013-10-09 18:53:00,73.9,50.0,29.77,SE,144,2.0,10.0,43,0.00,,,0.00,11,WeatherCatV1.21B27,2013-10-09 23:53:00,
2013-10-09 18:54:00,73.8,49.9,29.77,SE,136,1.0,9.0,43,0.00,,,0.00,11,WeatherCatV1.21B27,2013-10-09 23:54:00,
2013-10-09 18:55:00,73.7,49.8,29.77,SE,126,3.0,8.0,43,0.00,,,0.00,9,WeatherCatV1.21B27,2013-10-09 23:55:00,
2013-10-09 18:56:00,73.6,49.7,29.77,SE,126,1.0,6.0,43,0.00,,,0.00,9,WeatherCatV1.21B27,2013-10-09 23:56:00,
2013-10-09 18:58:00,73.4,49.5,29.77,SE,145,4.0,9.0,43,0.00,,,0.00,7,WeatherCatV1.21B27,2013-10-09 23:58:00,
2013-10-09 18:59:00,73.4,49.5,29.77,SE,145,1.0,9.0,43,0.00,,,0.00,7,WeatherCatV1.21B27,2013-10-09 23:59:00,
2013-10-09 19:00:00,73.3,49.4,29.77,SE,126,3.0,6.0,43,0.00,,,0.00,5,WeatherCatV1.21B27,2013-10-10 00:00:00,
2013-10-09 19:02:00,73.2,49.3,29.77,SE,145,11.0,11.0,43,0.00,,,0.00,5,WeatherCatV1.21B27,2013-10-10 00:02:00,
2013-10-09 19:03:00,73.2,49.3,29.77,SE,132,1.0,13.0,43,0.00,,,0.00,0,WeatherCatV1.21B27,2013-10-10 00:03:00,
2013-10-09 19:04:00,73.2,49.3,29.77,SE,132,0.0,13.0,43,0.00,,,0.00,0,WeatherCatV1.21B27,2013-10-10 00:04:00,
2013-10-09 19:05:00,73.1,49.9,29.77,SE,135,0.0,6.0,44,0.00,,,0.00,0,WeatherCatV1.21B27,2013-10-10 00:05:00,
2013-10-09 19:07:00,73.0,49.8,29.77,SE,134,3.0,3.0,44,0.00,,,0.00,0,WeatherCatV1.21B27,2013-10-10 00:07:00,
2013-10-09 19:09:00,72.8,49.6,29.77,SE,141,0.0,13.0,44,0.00,,,0.00,0,WeatherCatV1.21B27,2013-10-10 00:09:00,
2013-10-09 19:10:00,72.7,49.5,29.77,SSE,154,1.0,6.0,44,0.00,,,0.00,0,WeatherCatV1.21B27,2013-10-10 00:10:00,
2013-10-09 19:12:00,72.6,49.4,29.78,SSE,157,4.0,5.0,44,0.00,,,0.00,0,WeatherCatV1.21B27,2013-10-10 00:12:00,
2013-10-09 19:14:00,72.4,49.8,29.78,ESE,108,6.0,11.0,45,0.00,,,0.00,0,WeatherCatV1.21B27,2013-10-10 00:14:00,
2013-10-09 19:15:00,72.3,49.8,29.78,ESE,122,6.0,11.0,45,0.00,,,0.00,0,WeatherCatV1.21B27,2013-10-10 00:15:00,
2013-10-09 19:16:00,72.2,49.7,29.78,SE,131,2.0,5.0,45,0.00,,,0.00,0,WeatherCatV1.21B27,2013-10-10 00:16:00,
2013-10-09 19:17:00,72.1,49.6,29.78,SE,131,1.0,5.0,45,0.00,,,0.00,0,WeatherCatV1.21B27,2013-10-10 00:17:00,
2013-10-09 19:19:00,71.9,49.4,29.78,SSE,161,4.0,9.0,45,0.00,,,0.00,0,WeatherCatV1.21B27,2013-10-10 00:19:00,
2013-10-09 19:20:00,71.9,49.4,29.78,SSE,161,0.0,9.0,45,0.00,,,0.00,0,WeatherCatV1.21B27,2013-10-10 00:20:00,
2013-10-09 19:21:00,71.8,49.3,29.78,South,169,1.0,6.0,45,0.00,,,0.00,0,WeatherCatV1.21B27,2013-10-10 00:21:00,
2013-10-09 19:22:00,71.7,49.2,29.78,SSE,153,3.0,6.0,45,0.00,,,0.00,0,WeatherCatV1.21B27,2013-10-10 00:22:00,
2013-10-09 19:24:00,71.5,49.6,29.78,SSE,155,3.0,6.0,46,0.00,,,0.00,0,WeatherCatV1.21B27,2013-10-10 00:24:00,
2013-10-09 19:25:00,71.4,49.5,29.78,SSE,155,2.0,6.0,46,0.00,,,0.00,0,WeatherCatV1.21B27,2013-10-10 00:25:00,
2013-10-09 19:26:00,71.3,49.4,29.78,SSE,155,0.0,4.0,46,0.00,,,0.00,0,WeatherCatV1.21B27,2013-10-10 00:26:00,
2013-10-09 19:27:00,71.3,49.4,29.78,SSE,150,2.0,5.0,46,0.00,,,0.00,0,WeatherCatV1.21B27,2013-10-10 00:27:00,
2013-10-09 19:29:00,71.1,49.3,29.78,ESE,123,0.0,5.0,46,0.00,,,0.00,0,WeatherCatV1.21B27,2013-10-10 00:29:00,
2013-10-09 19:30:00,71.0,49.2,29.78,ESE,123,0.0,5.0,46,0.00,,,0.00,0,WeatherCatV1.21B27,2013-10-10 00:30:00,
2013-10-09 19:31:00,71.0,49.2,29.78,ESE,123,0.0,5.0,46,0.00,,,0.00,0,WeatherCatV1.21B27,2013-10-10 00:31:00,
2013-10-09 19:32:00,70.9,49.1,29.78,ESE,121,4.0,6.0,46,0.00,,,0.00,0,WeatherCatV1.21B27,2013-10-10 00:32:00,
2013-10-09 19:35:00,70.7,48.9,29.79,ESE,121,2.0,6.0,46,0.00,,,0.00,0,WeatherCatV1.21B27,2013-10-10 00:35:00,
2013-10-09 19:36:00,70.7,48.9,29.79,South,182,0.0,10.0,46,0.00,,,0.00,0,WeatherCatV1.21B27,2013-10-10 00:36:00,
2013-10-09 19:37:00,70.6,48.8,29.79,SE,145,3.0,12.0,46,0.00,,,0.00,0,WeatherCatV1.21B27,2013-10-10 00:37:00,
2013-10-09 19:40:00,70.5,48.7,29.79,SSE,164,3.0,5.0,46,0.00,,,0.00,0,WeatherCatV1.21B27,2013-10-10 00:40:00,
2013-10-09 19:41:00,70.4,49.2,29.79,SSE,149,3.0,6.0,47,0.00,,,0.00,0,WeatherCatV1.21B27,2013-10-10 00:41:00,
2013-10-09 19:42:00,70.4,49.2,29.79,SSE,148,0.0,6.0,47,0.00,,,0.00,0,WeatherCatV1.21B27,2013-10-10 00:42:00,
2013-10-09 19:43:00,70.3,49.1,29.79,SSE,148,1.0,6.0,47,0.00,,,0.00,0,WeatherCatV1.21B27,2013-10-10 00:43:00,
2013-10-09 19:45:00,70.2,49.0,29.79,SE,146,2.0,9.0,47,0.00,,,0.00,0,WeatherCatV1.21B27,2013-10-10 00:45:00,
2013-10-09 19:46:00,70.1,48.9,29.79,SE,144,6.0,6.0,47,0.00,,,0.00,0,WeatherCatV1.21B27,2013-10-10 00:46:00,
2013-10-09 19:47:00,70.1,48.9,29.79,ESE,115,1.0,7.0,47,0.00,,,0.00,0,WeatherCatV1.21B27,2013-10-10 00:47:00,
2013-10-09 19:48:00,70.0,48.8,29.79,ESE,119,9.0,9.0,47,0.00,,,0.00,0,WeatherCatV1.21B27,2013-10-10 00:48:00,
2013-10-09 19:49:00,69.9,48.7,29.79,ESE,114,5.0,9.0,47,0.00,,,0.00,0,WeatherCatV1.21B27,2013-10-10 00:49:00,
2013-10-09 19:50:00,69.9,48.7,29.79,ESE,115,2.0,6.0,47,0.00,,,0.00,0,WeatherCatV1.21B27,2013-10-10 00:50:00,
2013-10-09 19:51:00,69.8,49.2,29.79,ESE,119,4.0,5.0,48,0.00,,,0.00,0,WeatherCatV1.21B27,2013-10-10 00:51:00,
2013-10-09 19:52:00,69.8,49.2,29.79,ESE,119,2.0,6.0,48,0.00,,,0.00,0,WeatherCatV1.21B27,2013-10-10 00:52:00,
2013-10-09 19:53:00,69.7,48.6,29.79,SE,138,5.0,10.0,47,0.00,,,0.00,0,WeatherCatV1.21B27,2013-10-10 00:53:00,
2013-10-09 19:54:00,69.7,48.6,29.79,ESE,121,3.0,10.0,47,0.00,,,0.00,0,WeatherCatV1.21B27,2013-10-10 00:54:00,
2013-10-09 19:56:00,69.6,49.0,29.79,ESE,121,5.0,8.0,48,0.00,,,0.00,0,WeatherCatV1.21B27,2013-10-10 00:56:00,
2013-10-09 19:57:00,69.5,48.9,29.79,SSE,157,2.0,9.0,48,0.00,,,0.00,0,WeatherCatV1.21B27,2013-10-10 00:57:00,
2013-10-09 19:58:00,69.4,48.8,29.79,SSE,159,2.0,9.0,48,0.00,,,0.00,0,WeatherCatV1.21B27,2013-10-10 00:58:00,
2013-10-09 19:59:00,69.3,48.8,29.79,SSE,150,2.0,5.0,48,0.00,,,0.00,0,WeatherCatV1.21B27,2013-10-10 00:59:00,
2013-10-09 20:01:00,69.2,48.7,29.79,SSE,150,2.0,4.0,48,0.00,,,0.00,0,WeatherCatV1.21B27,2013-10-10 01:01:00,
2013-10-09 20:02:00,69.1,48.6,29.80,SE,138,0.0,8.0,48,0.00,,,0.00,0,WeatherCatV1.21B27,2013-10-10 01:02:00,
2013-10-09 20:03:00,69.0,49.0,29.79,SE,130,7.0,7.0,49,0.00,,,0.00,0,WeatherCatV1.21B27,2013-10-10 01:03:00,
2013-10-09 20:05:00,68.9,48.9,29.80,SE,136,0.0,8.0,49,0.00,,,0.00,0,WeatherCatV1.21B27,2013-10-10 01:05:00,
2013-10-09 20:06:00,68.8,48.8,29.80,SE,134,3.0,7.0,49,0.00,,,0.00,0,WeatherCatV1.21B27,2013-10-10 01:06:00,
2013-10-09 20:07:00,68.8,48.8,29.80,SE,134,0.0,5.0,49,0.00,,,0.00,0,WeatherCatV1.21B27,2013-10-10 01:07:00,
2013-10-09 20:09:00,68.8,48.8,29.80,SE,137,12.0,12.0,49,0.00,,,0.00,0,WeatherCatV1.21B27,2013-10-10 01:09:00,
2013-10-09 20:10:00,68.8,48.8,29.80,SE,140,6.0,12.0,49,0.00,,,0.00,0,WeatherCatV1.21B27,2013-10-10 01:10:00,
2013-10-09 20:11:00,68.8,48.8,29.80,SSE,155,3.0,7.0,49,0.00,,,0.00,0,WeatherCatV1.21B27,2013-10-10 01:11:00,
2013-10-09 20:12:00,68.8,48.8,29.80,ESE,115,0.0,12.0,49,0.00,,,0.00,0,WeatherCatV1.21B27,2013-10-10 01:12:00,
2013-10-09 20:13:00,68.8,48.8,29.80,South,169,4.0,14.0,49,0.00,,,0.00,0,WeatherCatV1.21B27,2013-10-10 01:13:00,
2013-10-09 20:14:00,68.8,48.8,29.80,South,172,5.0,14.0,49,0.00,,,0.00,0,WeatherCatV1.21B27,2013-10-10 01:14:00,
2013-10-09 20:15:00,68.8,48.8,29.80,SSE,153,0.0,10.0,49,0.00,,,0.00,0,WeatherCatV1.21B27,2013-10-10 01:15:00,
2013-10-09 20:16:00,68.8,48.8,29.80,SSE,150,3.0,7.0,49,0.00,,,0.00,0,WeatherCatV1.21B27,2013-10-10 01:16:00,
2013-10-09 20:17:00,68.7,48.8,29.80,SSE,148,2.0,4.0,49,0.00,,,0.00,0,WeatherCatV1.21B27,2013-10-10 01:17:00,
2013-10-09 20:18:00,68.7,48.8,29.80,SSE,147,3.0,4.0,49,0.00,,,0.00,0,WeatherCatV1.21B27,2013-10-10 01:18:00,
2013-10-09 20:19:00,68.6,48.7,29.80,SSE,153,3.0,6.0,49,0.00,,,0.00,0,WeatherCatV1.21B27,2013-10-10 01:19:00,
2013-10-09 20:20:00,68.6,48.7,29.80,SSE,164,6.0,7.0,49,0.00,,,0.00,0,WeatherCatV1.21B27,2013-10-10 01:20:00,
2013-10-09 20:22:00,68.6,48.7,29.80,SSW,194,9.0,9.0,49,0.00,,,0.00,0,WeatherCatV1.21B27,2013-10-10 01:22:00,
2013-10-09 20:23:00,68.5,48.6,29.80,SSE,165,2.0,9.0,49,0.00,,,0.00,0,WeatherCatV1.21B27,2013-10-10 01:23:00,
2013-10-09 20:24:00,68.5,48.6,29.80,SSE,153,1.0,5.0,49,0.00,,,0.00,0,WeatherCatV1.21B27,2013-10-10 01:24:00,
2013-10-09 20:26:00,68.4,48.5,29.80,SE,129,6.0,10.0,49,0.00,,,0.00,0,WeatherCatV1.21B27,2013-10-10 01:26:00,
2013-10-09 20:27:00,68.4,48.5,29.80,SE,137,6.0,10.0,49,0.00,,,0.00,0,WeatherCatV1.21B27,2013-10-10 01:27:00,
2013-10-09 20:28:00,68.3,48.9,29.80,SE,134,4.0,5.0,50,0.00,,,0.00,0,WeatherCatV1.21B27,2013-10-10 01:28:00,
2013-10-09 20:29:00,68.2,48.8,29.80,SE,134,3.0,4.0,50,0.00,,,0.00,0,WeatherCatV1.21B27,2013-10-10 01:29:00,
2013-10-09 20:32:00,68.0,49.2,29.80,ESE,123,0.0,7.0,51,0.00,,,0.00,0,WeatherCatV1.21B27,2013-10-10 01:32:00,
2013-10-09 20:33:00,67.9,49.1,29.80,ESE,122,0.0,3.0,51,0.00,,,0.00,0,WeatherCatV1.21B27,2013-10-10 01:33:00,
2013-10-09 20:34:00,67.9,49.1,29.81,ESE,123,0.0,4.0,51,0.00,,,0.00,0,WeatherCatV1.21B27,2013-10-10 01:34:00,
2013-10-09 20:36:00,67.7,48.9,29.80,SE,128,2.0,7.0,51,0.00,,,0.00,0,WeatherCatV1.21B27,2013-10-10 01:36:00,
2013-10-09 20:37:00,67.6,48.8,29.80,SSE,152,5.0,10.0,51,0.00,,,0.00,0,WeatherCatV1.21B27,2013-10-10 01:37:00,
2013-10-09 20:38:00,67.5,48.7,29.80,SE,137,3.0,10.0,51,0.00,,,0.00,0,WeatherCatV1.21B27,2013-10-10 01:38:00,
2013-10-09 20:39:00,67.5,48.7,29.80,SE,136,8.0,10.0,51,0.00,,,0.00,0,WeatherCatV1.21B27,2013-10-10 01:39:00,
2013-10-09 20:41:00,67.4,48.6,29.80,SSE,150,5.0,10.0,51,0.00,,,0.00,0,WeatherCatV1.21B27,2013-10-10 01:41:00,
2013-10-09 20:42:00,67.4,48.6,29.80,ESE,118,5.0,11.0,51,0.00,,,0.00,0,WeatherCatV1.21B27,2013-10-10 01:42:00,
2013-10-09 20:43:00,67.4,49.2,29.80,SSE,148,4.0,11.0,52,0.00,,,0.00,0,WeatherCatV1.21B27,2013-10-10 01:43:00,
2013-10-09 20:44:00,67.4,49.2,29.80,SSE,150,4.0,11.0,52,0.00,,,0.00,0,WeatherCatV1.21B27,2013-10-10 01:44:00,
2013-10-09 20:45:00,67.3,49.1,29.80,SE,132,5.0,10.0,52,0.00,,,0.00,0,WeatherCatV1.21B27,2013-10-10 01:45:00,
2013-10-09 20:46:00,67.3,49.1,29.81,SSE,147,3.0,6.0,52,0.00,,,0.00,0,WeatherCatV1.21B27,2013-10-10 01:46:00,
2013-10-09 20:47:00,67.2,49.0,29.81,SE,140,9.0,13.0,52,0.00,,,0.00,0,WeatherCatV1.21B27,2013-10-10 01:47:00,
2013-10-09 20:48:00,67.2,49.0,29.81,SSE,158,6.0,13.0,52,0.00,,,0.00,0,WeatherCatV1.21B27,2013-10-10 01:48:00,
2013-10-09 20:49:00,67.2,49.0,29.81,SE,138,3.0,13.0,52,0.00,,,0.00,0,WeatherCatV1.21B27,2013-10-10 01:49:00,
2013-10-09 20:50:00,67.1,48.9,29.81,SE,138,0.0,5.0,52,0.00,,,0.00,0,WeatherCatV1.21B27,2013-10-10 01:50:00,
2013-10-09 20:51:00,67.0,49.3,29.81,SE,132,3.0,7.0,53,0.00,,,0.00,0,WeatherCatV1.21B27,2013-10-10 01:51:00,
2013-10-09 20:52:00,66.9,49.2,29.81,SE,134,7.0,9.0,53,0.00,,,0.00,0,WeatherCatV1.21B27,2013-10-10 01:52:00,
2013-10-09 20:53:00,66.9,49.2,29.81,SE,134,6.0,9.0,53,0.00,,,0.00,0,WeatherCatV1.21B27,2013-10-10 01:53:00,
2013-10-09 20:54:00,66.8,49.1,29.81,SE,136,4.0,9.0,53,0.00,,,0.00,0,WeatherCatV1.21B27,2013-10-10 01:54:00,
2013-10-09 20:55:00,66.7,49.0,29.81,SE,127,3.0,7.0,53,0.00,,,0.00,0,WeatherCatV1.21B27,2013-10-10 01:55:00,
2013-10-09 20:56:00,66.6,48.9,29.81,SSE,163,7.0,7.0,53,0.00,,,0.00,0,WeatherCatV1.21B27,2013-10-10 01:56:00,
2013-10-09 20:58:00,66.5,48.8,29.81,SE,132,4.0,9.0,53,0.00,,,0.00,0,WeatherCatV1.21B27,2013-10-10 01:58:00,
2013-10-09 20:59:00,66.4,49.2,29.81,SE,126,2.0,7.0,54,0.00,,,0.00,0,WeatherCatV1.21B27,2013-10-10 01:59:00,
2013-10-09 21:00:00,66.3,49.2,29.81,SSE,149,2.0,10.0,54,0.00,,,0.00,0,WeatherCatV1.21B27,2013-10-10 02:00:00,
2013-10-09 21:02:00,66.3,49.2,29.81,South,178,4.0,10.0,54,0.00,,,0.00,0,WeatherCatV1.21B27,2013-10-10 02:02:00,
2013-10-09 21:03:00,66.3,49.2,29.81,SE,133,13.0,13.0,54,0.00,,,0.00,0,WeatherCatV1.21B27,2013-10-10 02:03:00,
2013-10-09 21:04:00,66.4,49.2,29.81,SSE,148,3.0,13.0,54,0.00,,,0.00,0,WeatherCatV1.21B27,2013-10-10 02:04:00,
2013-10-09 21:05:00,66.5,49.3,29.82,SSW,198,2.0,14.0,54,0.00,,,0.00,0,WeatherCatV1.21B27,2013-10-10 02:05:00,
2013-10-09 21:07:00,66.5,49.3,29.82,South,180,4.0,14.0,54,0.00,,,0.00,0,WeatherCatV1.21B27,2013-10-10 02:07:00,
2013-10-09 21:08:00,66.4,49.2,29.82,SSE,160,2.0,11.0,54,0.00,,,0.00,0,WeatherCatV1.21B27,2013-10-10 02:08:00,
2013-10-09 21:09:00,66.4,49.2,29.82,SSE,149,4.0,6.0,54,0.00,,,0.00,0,WeatherCatV1.21B27,2013-10-10 02:09:00,
2013-10-09 21:10:00,66.3,49.6,29.82,SSE,150,5.0,6.0,55,0.00,,,0.00,0,WeatherCatV1.21B27,2013-10-10 02:10:00,
2013-10-09 21:12:00,66.2,49.5,29.82,SE,134,7.0,7.0,55,0.00,,,0.00,0,WeatherCatV1.21B27,2013-10-10 02:12:00,
2013-10-09 21:13:00,66.2,49.5,29.82,SE,135,6.0,10.0,55,0.00,,,0.00,0,WeatherCatV1.21B27,2013-10-10 02:13:00,
2013-10-09 21:14:00,66.2,49.5,29.82,ESE,112,6.0,14.0,55,0.00,,,0.00,0,WeatherCatV1.21B27,2013-10-10 02:14:00,
2013-10-09 21:15:00,66.2,49.5,29.82,South,173,5.0,14.0,55,0.00,,,0.00,0,WeatherCatV1.21B27,2013-10-10 02:15:00,
2013-10-09 21:17:00,66.1,49.9,29.82,SSE,162,4.0,7.0,56,0.00,,,0.00,0,WeatherCatV1.21B27,2013-10-10 02:17:00,
2013-10-09 21:18:00,66.1,49.9,29.82,SE,138,5.0,7.0,56,0.00,,,0.00,0,WeatherCatV1.21B27,2013-10-10 02:18:00,
2013-10-09 21:19:00,66.0,49.8,29.82,ESE,106,4.0,7.0,56,0.00,,,0.00,0,WeatherCatV1.21B27,2013-10-10 02:19:00,
2013-10-09 21:20:00,66.0,49.8,29.82,SE,132,7.0,11.0,56,0.00,,,0.00,0,WeatherCatV1.21B27,2013-10-10 02:20:00,
2013-10-09 21:21:00,65.9,49.8,29.82,SE,134,9.0,11.0,56,0.00,,,0.00,0,WeatherCatV1.21B27,2013-10-10 02:21:00,
2013-10-09 21:22:00,65.9,49.8,29.82,SE,138,4.0,9.0,56,0.00,,,0.00,0,WeatherCatV1.21B27,2013-10-10 02:22:00,
2013-10-09 21:23:00,65.9,49.8,29.82,SE,140,3.0,7.0,56,0.00,,,0.00,0,WeatherCatV1.21B27,2013-10-10 02:23:00,
2013-10-09 21:25:00,65.8,49.7,29.82,SE,130,6.0,11.0,56,0.00,,,0.00,0,WeatherCatV1.21B27,2013-10-10 02:25:00,
2013-10-09 21:26:00,65.8,49.7,29.82,ESE,122,6.0,10.0,56,0.00,,,0.00,0,WeatherCatV1.21B27,2013-10-10 02:26:00,
2013-10-09 21:27:00,65.7,50.0,29.82,SE,130,4.0,9.0,57,0.00,,,0.00,0,WeatherCatV1.21B27,2013-10-10 02:27:00,
2013-10-09 21:28:00,65.7,50.0,29.82,SE,132,4.0,9.0,57,0.00,,,0.00,0,WeatherCatV1.21B27,2013-10-10 02:28:00,
2013-10-09 21:30:00,65.6,50.0,29.82,SSW,192,5.0,10.0,57,0.00,,,0.00,0,WeatherCatV1.21B27,2013-10-10 02:30:00,
2013-10-09 21:31:00,65.6,50.0,29.82,South,187,6.0,10.0,57,0.00,,,0.00,0,WeatherCatV1.21B27,2013-10-10 02:31:00,
2013-10-09 21:32:00,65.6,50.0,29.82,SSE,163,7.0,10.0,57,0.00,,,0.00,0,WeatherCatV1.21B27,2013-10-10 02:32:00,
2013-10-09 21:33:00,65.6,50.0,29.82,South,175,6.0,10.0,57,0.00,,,0.00,0,WeatherCatV1.21B27,2013-10-10 02:33:00,
2013-10-09 21:35:00,65.5,50.3,29.82,SSE,159,3.0,10.0,58,0.00,,,0.00,0,WeatherCatV1.21B27,2013-10-10 02:35:00,
2013-10-09 21:36:00,65.5,50.3,29.82,SSE,155,2.0,10.0,58,0.00,,,0.00,0,WeatherCatV1.21B27,2013-10-10 02:36:00,
2013-10-09 21:37:00,65.5,50.3,29.82,South,171,3.0,12.0,58,0.00,,,0.00,0,WeatherCatV1.21B27,2013-10-10 02:37:00,
2013-10-09 21:38:00,65.4,50.2,29.82,SE,138,9.0,14.0,58,0.00,,,0.00,0,WeatherCatV1.21B27,2013-10-10 02:38:00,
2013-10-09 21:41:00,65.3,50.1,29.82,SSW,213,4.0,11.0,58,0.00,,,0.00,0,WeatherCatV1.21B27,2013-10-10 02:41:00,
2013-10-09 21:42:00,65.2,50.0,29.82,ESE,115,0.0,6.0,58,0.00,,,0.00,0,WeatherCatV1.21B27,2013-10-10 02:42:00,
2013-10-09 21:44:00,65.1,50.0,29.82,SSE,148,3.0,8.0,58,0.00,,,0.00,0,WeatherCatV1.21B27,2013-10-10 02:44:00,
2013-10-09 21:46:00,65.0,50.3,29.82,SE,144,2.0,9.0,59,0.00,,,0.00,0,WeatherCatV1.21B27,2013-10-10 02:46:00,
2013-10-09 21:47:00,65.0,50.3,29.82,SE,142,5.0,5.0,59,0.00,,,0.00,0,WeatherCatV1.21B27,2013-10-10 02:47:00,
2013-10-09 21:49:00,64.9,50.2,29.82,SE,140,5.0,9.0,59,0.00,,,0.00,0,WeatherCatV1.21B27,2013-10-10 02:49:00,
2013-10-09 21:51:00,64.7,50.0,29.82,SSE,153,3.0,6.0,59,0.00,,,0.00,0,WeatherCatV1.21B27,2013-10-10 02:51:00,
2013-10-09 21:52:00,64.7,50.0,29.82,SSE,156,4.0,6.0,59,0.00,,,0.00,0,WeatherCatV1.21B27,2013-10-10 02:52:00,
2013-10-09 21:54:00,64.7,50.0,29.82,ESE,119,4.0,13.0,59,0.00,,,0.00,0,WeatherCatV1.21B27,2013-10-10 02:54:00,
2013-10-09 21:56:00,64.6,49.9,29.83,SE,144,3.0,11.0,59,0.00,,,0.00,0,WeatherCatV1.21B27,2013-10-10 02:56:00,
2013-10-09 21:57:00,64.6,50.4,29.83,SE,145,0.0,11.0,60,0.00,,,0.00,0,WeatherCatV1.21B27,2013-10-10 02:57:00,
2013-10-09 21:58:00,64.6,50.4,29.83,SE,136,2.0,6.0,60,0.00,,,0.00,0,WeatherCatV1.21B27,2013-10-10 02:58:00,
2013-10-09 21:59:00,64.5,50.3,29.83,SE,136,7.0,10.0,60,0.00,,,0.00,0,WeatherCatV1.21B27,2013-10-10 02:59:00,
2013-10-09 22:00:00,64.5,50.3,29.83,SE,141,3.0,10.0,60,0.00,,,0.00,0,WeatherCatV1.21B27,2013-10-10 03:00:00,
2013-10-09 22:01:00,64.5,50.3,29.83,SE,138,3.0,7.0,60,0.00,,,0.00,0,WeatherCatV1.21B27,2013-10-10 03:01:00,
2013-10-09 22:02:00,64.5,50.3,29.83,SE,126,5.0,9.0,60,0.00,,,0.00,0,WeatherCatV1.21B27,2013-10-10 03:02:00,
2013-10-09 22:03:00,64.5,50.3,29.82,SSE,150,6.0,9.0,60,0.00,,,0.00,0,WeatherCatV1.21B27,2013-10-10 03:03:00,
2013-10-09 22:04:00,64.4,50.2,29.83,SSE,167,0.0,15.0,60,0.00,,,0.00,0,WeatherCatV1.21B27,2013-10-10 03:04:00,
2013-10-09 22:05:00,64.4,50.2,29.83,South,169,10.0,15.0,60,0.00,,,0.00,0,WeatherCatV1.21B27,2013-10-10 03:05:00,
2013-10-09 22:07:00,64.3,50.1,29.83,ESE,113,6.0,11.0,60,0.00,,,0.00,0,WeatherCatV1.21B27,2013-10-10 03:07:00,
2013-10-09 22:08:00,64.3,50.1,29.82,SE,144,5.0,11.0,60,0.00,,,0.00,0,WeatherCatV1.21B27,2013-10-10 03:08:00,
2013-10-09 22:09:00,64.2,50.0,29.83,ESE,121,5.0,5.0,60,0.00,,,0.00,0,WeatherCatV1.21B27,2013-10-10 03:09:00,
2013-10-09 22:11:00,64.2,50.5,29.83,ESE,122,4.0,11.0,61,0.00,,,0.00,0,WeatherCatV1.21B27,2013-10-10 03:11:00,
2013-10-09 22:12:00,64.1,50.4,29.83,ESE,121,5.0,12.0,61,0.00,,,0.00,0,WeatherCatV1.21B27,2013-10-10 03:12:00,
2013-10-09 22:13:00,64.1,50.4,29.83,ESE,122,1.0,12.0,61,0.00,,,0.00,0,WeatherCatV1.21B27,2013-10-10 03:13:00,
2013-10-09 22:14:00,64.1,50.4,29.83,South,180,4.0,9.0,61,0.00,,,0.00,0,WeatherCatV1.21B27,2013-10-10 03:14:00,
2013-10-09 22:16:00,64.1,50.4,29.83,SE,144,10.0,11.0,61,0.00,,,0.00,0,WeatherCatV1.21B27,2013-10-10 03:16:00,
2013-10-09 22:18:00,64.0,50.3,29.83,SE,140,4.0,7.0,61,0.00,,,0.00,0,WeatherCatV1.21B27,2013-10-10 03:18:00,
2013-10-09 22:19:00,63.9,50.2,29.83,SE,141,1.0,5.0,61,0.00,,,0.00,0,WeatherCatV1.21B27,2013-10-10 03:19:00,
2013-10-09 22:21:00,63.8,50.5,29.83,SSE,155,3.0,11.0,62,0.00,,,0.00,0,WeatherCatV1.21B27,2013-10-10 03:21:00,
2013-10-09 22:23:00,63.8,50.5,29.83,SE,130,3.0,11.0,62,0.00,,,0.00,0,WeatherCatV1.21B27,2013-10-10 03:23:00,
2013-10-09 22:24:00,63.8,50.5,29.83,SSE,162,3.0,11.0,62,0.00,,,0.00,0,WeatherCatV1.21B27,2013-10-10 03:24:00,
2013-10-09 22:25:00,63.8,50.5,29.83,SSE,161,3.0,11.0,62,0.00,,,0.00,0,WeatherCatV1.21B27,2013-10-10 03:25:00,
2013-10-09 22:26:00,63.8,50.5,29.83,SSE,167,3.0,7.0,62,0.00,,,0.00,0,WeatherCatV1.21B27,2013-10-10 03:26:00,
2013-10-09 22:28:00,63.6,50.3,29.83,SE,134,5.0,9.0,62,0.00,,,0.00,0,WeatherCatV1.21B27,2013-10-10 03:28:00,
2013-10-09 22:29:00,63.6,50.3,29.83,SE,141,2.0,9.0,62,0.00,,,0.00,0,WeatherCatV1.21B27,2013-10-10 03:29:00,
2013-10-09 22:30:00,63.6,50.3,29.83,SSE,149,3.0,10.0,62,0.00,,,0.00,0,WeatherCatV1.21B27,2013-10-10 03:30:00,
2013-10-09 22:31:00,63.6,50.3,29.83,SSE,166,2.0,6.0,62,0.00,,,0.00,0,WeatherCatV1.21B27,2013-10-10 03:31:00,
2013-10-09 22:33:00,63.6,50.3,29.83,SSE,164,5.0,5.0,62,0.00,,,0.00,0,WeatherCatV1.21B27,2013-10-10 03:33:00,
2013-10-09 22:34:00,63.5,50.2,29.83,SSE,160,1.0,5.0,62,0.00,,,0.00,0,WeatherCatV1.21B27,2013-10-10 03:34:00,
2013-10-09 22:35:00,63.6,50.3,29.83,SE,131,6.0,16.0,62,0.00,,,0.00,0,WeatherCatV1.21B27,2013-10-10 03:35:00,
2013-10-09 22:36:00,63.6,50.3,29.83,SE,136,4.0,12.0,62,0.00,,,0.00,0,WeatherCatV1.21B27,2013-10-10 03:36:00,
2013-10-09 22:38:00,63.6,50.8,29.83,ESE,117,3.0,6.0,63,0.00,,,0.00,0,WeatherCatV1.21B27,2013-10-10 03:38:00,
2013-10-09 22:39:00,63.6,50.8,29.83,ESE,117,3.0,6.0,63,0.00,,,0.00,0,WeatherCatV1.21B27,2013-10-10 03:39:00,
2013-10-09 22:40:00,63.6,50.8,29.83,SE,128,4.0,5.0,63,0.00,,,0.00,0,WeatherCatV1.21B27,2013-10-10 03:40:00,
2013-10-09 22:43:00,63.5,50.7,29.83,SSW,193,3.0,9.0,63,0.00,,,0.00,0,WeatherCatV1.21B27,2013-10-10 03:43:00,
2013-10-09 22:44:00,63.5,50.7,29.84,SSW,192,3.0,4.0,63,0.00,,,0.00,0,WeatherCatV1.21B27,2013-10-10 03:44:00,
2013-10-09 22:45:00,63.4,50.6,29.84,SE,137,7.0,12.0,63,0.00,,,0.00,0,WeatherCatV1.21B27,2013-10-10 03:45:00,
2013-10-09 22:48:00,63.4,50.6,29.84,SE,130,0.0,7.0,63,0.00,,,0.00,0,WeatherCatV1.21B27,2013-10-10 03:48:00,
2013-10-09 22:49:00,63.3,50.5,29.84,SE,132,10.0,10.0,63,0.00,,,0.00,0,WeatherCatV1.21B27,2013-10-10 03:49:00,
2013-10-09 22:50:00,63.3,50.9,29.84,SE,128,4.0,10.0,64,0.00,,,0.00,0,WeatherCatV1.21B27,2013-10-10 03:50:00,
2013-10-09 22:53:00,63.2,50.8,29.83,SSE,162,1.0,7.0,64,0.00,,,0.00,0,WeatherCatV1.21B27,2013-10-10 03:53:00,
2013-10-09 22:54:00,63.2,50.8,29.83,SSE,153,5.0,5.0,64,0.00,,,0.00,0,WeatherCatV1.21B27,2013-10-10 03:54:00,
2013-10-09 22:55:00,63.2,50.8,29.84,SSE,155,3.0,5.0,64,0.00,,,0.00,0,WeatherCatV1.21B27,2013-10-10 03:55:00,
2013-10-09 22:58:00,63.1,50.7,29.84,South,170,5.0,11.0,64,0.00,,,0.00,0,WeatherCatV1.21B27,2013-10-10 03:58:00,
2013-10-09 22:59:00,63.1,50.7,29.84,South,169,3.0,5.0,64,0.00,,,0.00,0,WeatherCatV1.21B27,2013-10-10 03:59:00,
2013-10-09 23:00:00,63.1,50.7,29.84,SSE,160,2.0,6.0,64,0.00,,,0.00,0,WeatherCatV1.21B27,2013-10-10 04:00:00,
2013-10-09 23:01:00,63.0,50.6,29.84,South,171,6.0,11.0,64,0.00,,,0.00,0,WeatherCatV1.21B27,2013-10-10 04:01:00,
2013-10-09 23:06:00,62.8,50.8,29.84,SE,140,1.0,7.0,65,0.00,,,0.00,0,WeatherCatV1.21B27,2013-10-10 04:06:00,
2013-10-09 23:11:00,62.7,50.8,29.84,SSE,159,6.0,10.0,65,0.00,,,0.00,0,WeatherCatV1.21B27,2013-10-10 04:11:00,
2013-10-09 23:12:00,62.7,50.8,29.84,SSE,158,4.0,10.0,65,0.00,,,0.00,0,WeatherCatV1.21B27,2013-10-10 04:12:00,
2013-10-09 23:16:00,62.7,51.2,29.84,ESE,105,6.0,8.0,66,0.00,,,0.00,0,WeatherCatV1.21B27,2013-10-10 04:16:00,
2013-10-09 23:17:00,62.6,51.1,29.84,ESE,119,3.0,8.0,66,0.00,,,0.00,0,WeatherCatV1.21B27,2013-10-10 04:17:00,
2013-10-09 23:21:00,62.6,51.1,29.84,South,182,5.0,7.0,66,0.00,,,0.00,0,WeatherCatV1.21B27,2013-10-10 04:21:00,
2013-10-09 23:22:00,62.6,51.1,29.84,SSE,153,4.0,7.0,66,0.00,,,0.00,0,WeatherCatV1.21B27,2013-10-10 04:22:00,
2013-10-09 23:27:00,62.6,51.1,29.84,SSE,165,3.0,11.0,66,0.00,,,0.00,0,WeatherCatV1.21B27,2013-10-10 04:27:00,
2013-10-09 23:32:00,62.5,51.4,29.84,South,174,7.0,10.0,67,0.00,,,0.00,0,WeatherCatV1.21B27,2013-10-10 04:32:00,
2013-10-09 23:33:00,62.5,51.4,29.84,SE,130,3.0,12.0,67,0.00,,,0.00,0,WeatherCatV1.21B27,2013-10-10 04:33:00,
2013-10-09 23:37:00,62.5,51.4,29.84,SE,137,3.0,9.0,67,0.00,,,0.00,0,WeatherCatV1.21B27,2013-10-10 04:37:00,
2013-10-09 23:38:00,62.5,51.4,29.84,South,186,5.0,7.0,67,0.00,,,0.00,0,WeatherCatV1.21B27,2013-10-10 04:38:00,
2013-10-09 23:42:00,62.3,51.2,29.84,SSE,148,4.0,6.0,67,0.00,,,0.00,0,WeatherCatV1.21B27,2013-10-10 04:42:00,
2013-10-09 23:43:00,62.3,51.2,29.84,SSE,147,6.0,6.0,67,0.00,,,0.00,0,WeatherCatV1.21B27,2013-10-10 04:43:00,
2013-10-09 23:44:00,62.3,51.6,29.84,SSE,164,8.0,8.0,68,0.00,,,0.00,0,WeatherCatV1.21B27,2013-10-10 04:44:00,
2013-10-09 23:47:00,62.2,51.5,29.84,SSE,159,7.0,7.0,68,0.00,,,0.00,0,WeatherCatV1.21B27,2013-10-10 04:47:00,
2013-10-09 23:48:00,62.2,51.5,29.84,SE,137,5.0,10.0,68,0.00,,,0.00,0,WeatherCatV1.21B27,2013-10-10 04:48:00,
2013-10-09 23:49:00,62.2,51.5,29.84,SSE,161,2.0,10.0,68,0.00,,,0.00,0,WeatherCatV1.21B27,2013-10-10 04:49:00,
2013-10-09 23:52:00,62.0,51.3,29.84,South,175,5.0,6.0,68,0.00,,,0.00,0,WeatherCatV1.21B27,2013-10-10 04:52:00,
2013-10-09 23:53:00,62.1,51.4,29.84,South,175,4.0,6.0,68,0.00,,,0.00,0,WeatherCatV1.21B27,2013-10-10 04:53:00,
2013-10-09 23:54:00,62.0,51.3,29.84,SSE,158,2.0,4.0,68,0.00,,,0.00,0,WeatherCatV1.21B27,2013-10-10 04:54:00,
2013-10-09 23:57:00,61.8,51.1,29.84,SSW,192,9.0,9.0,68,0.00,,,0.00,0,WeatherCatV1.21B27,2013-10-10 04:57:00,
2013-10-09 23:58:00,61.8,51.1,29.84,South,190,6.0,9.0,68,0.00,,,0.00,0,WeatherCatV1.21B27,2013-10-10 04:58:00,
2013-10-09 23:59:00,61.8,51.5,29.84,South,187,8.0,10.0,69,0.00,,,0.00,0,WeatherCatV1.21B27,2013-10-10 04:59:00,